CES7630 ZUXC-PHNL

Flight info

Callsign CES7630
Flight time N/A
Altitude 35100
Route BOPTU W162 KAKMI W144 IGNAK W179 WFX B213 ESPEG V154 SNF W269 OLPOV B213 WHA R343 PK A593 AKARA/K0911F351 A593 LAMEN/N0492F351 A593 SADLI Y590 BEDAR Y591 FUE Y23 KASTE Y81 TASOT Y57 LIGNI Y816 IPROS Y830 LAPIL OTR13 SEALS DCT 34N153E DCT 34N159E DCT 33N166E DCT 31N173E DCT 29N179E DCT 27N174W DCT 25N168W DCT CANON DCT CANON
Aircraft MD11/H-SDE1E2E3FGHIJ2J3J4J5M1RWXY/LB1D1

Departure

Time 2026-05-06 23:40
Airport Xichang Qingshan Airport (ZUXC)

Arrival

Time N/A
Airport Daniel K. Inouye International Airport (PHNL)
Time Latitude Longitude Altitude Speed Heading
2026-05-06 23:24 27.98292 102.18647 5089 ft 0 kts 88°
2026-05-06 23:31 27.98293 102.18621 5089 ft 4 kts 93°
2026-05-06 23:31 27.98293 102.18595 5089 ft 4 kts 72°
2026-05-06 23:32 27.98287 102.18578 5090 ft 4 kts 18°
2026-05-06 23:32 27.98268 102.18578 5091 ft 4 kts 340°
2026-05-06 23:32 27.98243 102.18589 5091 ft 4 kts 345°
2026-05-06 23:32 27.98225 102.18593 5092 ft 0 kts
2026-05-06 23:34 27.98227 102.18593 5090 ft 2 kts
2026-05-06 23:35 27.98274 102.18589 5089 ft 11 kts 356°
2026-05-06 23:35 27.98384 102.18586 5089 ft 20 kts 359°
2026-05-06 23:35 27.98545 102.18581 5089 ft 21 kts 358°
2026-05-06 23:35 27.98700 102.18575 5089 ft 22 kts 358°
2026-05-06 23:36 27.98863 102.18569 5089 ft 23 kts 358°
2026-05-06 23:36 27.99025 102.18564 5090 ft 22 kts 358°
2026-05-06 23:36 27.99184 102.18558 5090 ft 24 kts 358°
2026-05-06 23:36 27.99347 102.18552 5090 ft 23 kts 358°
2026-05-06 23:37 27.99511 102.18544 5090 ft 24 kts 358°
2026-05-06 23:37 27.99681 102.18538 5090 ft 22 kts 358°
2026-05-06 23:37 27.99839 102.18532 5089 ft 23 kts 358°
2026-05-06 23:37 27.99997 102.18525 5089 ft 23 kts 358°
2026-05-06 23:38 28.00156 102.18518 5089 ft 23 kts 358°
2026-05-06 23:38 28.00315 102.18512 5089 ft 23 kts 358°
2026-05-06 23:38 28.00428 102.18508 5090 ft 10 kts 358°
2026-05-06 23:38 28.00486 102.18499 5090 ft 5 kts 330°
2026-05-06 23:39 28.00497 102.18471 5090 ft 4 kts 279°
2026-05-06 23:39 28.00500 102.18420 5091 ft 9 kts 270°
2026-05-06 23:39 28.00469 102.18369 5091 ft 7 kts 184°
2026-05-06 23:39 28.00355 102.18374 5091 ft 43 kts 178°
2026-05-06 23:40 27.99803 102.18396 5090 ft 114 kts 178°
2026-05-06 23:40 27.98805 102.18432 5091 ft 169 kts 179°
2026-05-06 23:40 27.97549 102.18525 5264 ft 183 kts 172°
2026-05-06 23:40 27.96286 102.18546 5898 ft 184 kts 173°
2026-05-06 23:41 27.94976 102.18615 6367 ft 190 kts 170°
2026-05-06 23:41 27.93641 102.18706 6933 ft 194 kts 170°
2026-05-06 23:41 27.92293 102.18795 7476 ft 195 kts 169°
2026-05-06 23:41 27.90948 102.18876 7999 ft 197 kts 171°
2026-05-06 23:42 27.89529 102.18717 8296 ft 218 kts 187°
2026-05-06 23:42 27.87999 102.18181 8484 ft 236 kts 193°
2026-05-06 23:42 27.86430 102.17624 8715 ft 239 kts 181°
2026-05-06 23:42 27.84850 102.17763 9276 ft 225 kts 158°
2026-05-06 23:43 27.83354 102.18301 9754 ft 226 kts 153°
2026-05-06 23:43 27.81867 102.18895 10235 ft 228 kts 153°
2026-05-06 23:43 27.80372 102.19503 10707 ft 228 kts 150°
2026-05-06 23:43 27.78995 102.20371 11018 ft 228 kts 133°
2026-05-06 23:44 27.78033 102.21787 11156 ft 231 kts 109°
2026-05-06 23:44 27.77755 102.23614 11294 ft 248 kts 83°
2026-05-06 23:44 27.78253 102.25560 11454 ft 272 kts 68°
2026-05-06 23:44 27.79096 102.27577 11606 ft 296 kts 65°
2026-05-06 23:45 27.80065 102.29730 11774 ft 319 kts 65°
2026-05-06 23:45 27.81106 102.32018 12150 ft 332 kts 64°
2026-05-06 23:45 27.82165 102.34345 12913 ft 334 kts 65°
2026-05-06 23:45 27.83225 102.36686 13657 ft 336 kts 65°
2026-05-06 23:46 27.84285 102.39041 14385 ft 336 kts 64°
2026-05-06 23:46 27.85348 102.41409 15066 ft 339 kts 64°
2026-05-06 23:46 27.86407 102.43770 15838 ft 336 kts 63°
2026-05-06 23:46 27.87460 102.46125 16571 ft 338 kts 63°
2026-05-06 23:47 27.88549 102.48561 16698 ft 356 kts 63°
2026-05-06 23:47 27.89690 102.51110 16818 ft 371 kts 62°
2026-05-06 23:47 27.90884 102.53764 16995 ft 385 kts 62°
2026-05-06 23:47 27.92098 102.56459 17757 ft 383 kts 62°
2026-05-06 23:48 27.93298 102.59126 18693 ft 378 kts 60°
2026-05-06 23:48 27.94486 102.61765 19604 ft 374 kts 59°
2026-05-06 23:48 27.95661 102.64379 20412 ft 372 kts 58°
2026-05-06 23:48 27.96830 102.66977 21128 ft 369 kts 57°
2026-05-06 23:49 27.97993 102.69563 21790 ft 368 kts 56°
2026-05-06 23:49 27.99152 102.72140 22450 ft 367 kts 56°
2026-05-06 23:49 28.00307 102.74709 23070 ft 366 kts 56°
2026-05-06 23:49 28.01456 102.77266 23687 ft 365 kts 56°
2026-05-06 23:50 28.02601 102.79820 24292 ft 364 kts 56°
2026-05-06 23:50 28.04887 102.84918 25480 ft 362 kts 56°
2026-05-06 23:50 28.06009 102.87421 26043 ft 361 kts 56°
2026-05-06 23:51 28.07142 102.89951 26637 ft 360 kts 56°
2026-05-06 23:51 28.08271 102.92475 27193 ft 359 kts 56°
2026-05-06 23:51 28.09399 102.95001 27631 ft 359 kts 56°
2026-05-06 23:51 28.10523 102.97516 28198 ft 357 kts 56°
2026-05-06 23:52 28.11643 103.00024 28738 ft 356 kts 56°
2026-05-06 23:52 28.12759 103.02524 29263 ft 355 kts 56°
2026-05-06 23:52 28.13870 103.05014 29762 ft 354 kts 56°
2026-05-06 23:52 28.14980 103.07504 30203 ft 354 kts 57°
2026-05-06 23:53 28.16087 103.09990 30644 ft 353 kts 56°
2026-05-06 23:53 28.17193 103.12471 31080 ft 352 kts 57°
2026-05-06 23:53 28.18295 103.14948 31512 ft 351 kts 56°
2026-05-06 23:53 28.19394 103.17420 31913 ft 351 kts 56°
2026-05-06 23:54 28.20493 103.19891 32233 ft 351 kts 56°
2026-05-06 23:54 28.21586 103.22354 32643 ft 350 kts 56°
2026-05-06 23:54 28.22678 103.24814 33003 ft 349 kts 56°
2026-05-06 23:54 28.23767 103.27270 33361 ft 348 kts 56°
2026-05-06 23:55 28.24852 103.29717 33718 ft 347 kts 56°
2026-05-06 23:55 28.25934 103.32160 34022 ft 347 kts 56°
2026-05-06 23:55 28.27012 103.34604 34329 ft 346 kts 57°
2026-05-06 23:55 28.28084 103.37047 34557 ft 346 kts 57°
2026-05-06 23:56 28.29152 103.39483 34882 ft 344 kts 56°
2026-05-06 23:56 28.30224 103.41922 35002 ft 348 kts 56°
2026-05-06 23:56 28.32345 103.46726 35028 ft 350 kts 57°
2026-05-06 23:57 28.34502 103.51632 35024 ft 345 kts 56°
2026-05-06 23:57 28.36643 103.56495 35031 ft 345 kts 56°
2026-05-06 23:58 28.38785 103.61363 35031 ft 345 kts 56°
2026-05-06 23:58 28.40924 103.66230 35027 ft 344 kts 57°
2026-05-06 23:59 28.43063 103.71104 35032 ft 345 kts 57°
2026-05-06 23:59 28.45201 103.75980 35025 ft 345 kts 57°
2026-05-07 00:00 28.47331 103.80848 35035 ft 344 kts 56°
2026-05-07 00:00 28.49113 103.84919 35022 ft 347 kts 57°
2026-05-07 00:01 28.51609 103.90638 35030 ft 345 kts 57°
2026-05-07 00:01 28.53737 103.95517 35033 ft 345 kts 57°
2026-05-07 00:02 28.55864 104.00398 35033 ft 344 kts 57°
2026-05-07 00:02 28.57979 104.05270 35031 ft 347 kts 57°
2026-05-07 00:03 28.60094 104.10185 35024 ft 345 kts 57°
2026-05-07 00:03 28.62207 104.15082 35033 ft 345 kts 57°
2026-05-07 00:04 28.64522 104.19816 35019 ft 338 kts 49°
2026-05-07 00:04 28.67617 104.23755 35026 ft 333 kts 37°
2026-05-07 00:05 28.71456 104.26637 35030 ft 330 kts 26°
2026-05-07 00:05 28.75789 104.28368 35028 ft 332 kts 14°
2026-05-07 00:06 28.80410 104.28872 35032 ft 337 kts
2026-05-07 00:06 28.85150 104.28604 35027 ft 339 kts
2026-05-07 00:07 28.89859 104.28283 35027 ft 339 kts
2026-05-07 00:07 28.94567 104.27996 35030 ft 339 kts
2026-05-07 00:08 28.99247 104.27728 35028 ft 339 kts
2026-05-07 00:08 29.03954 104.27465 35028 ft 339 kts
2026-05-07 00:09 29.08663 104.27203 35030 ft 339 kts
2026-05-07 00:09 29.13372 104.26941 35030 ft 339 kts
2026-05-07 00:10 29.18078 104.26679 35028 ft 339 kts
2026-05-07 00:10 29.22787 104.26417 35029 ft 339 kts
2026-05-07 00:11 29.27488 104.26258 35026 ft 336 kts
2026-05-07 00:11 29.32100 104.26888 35028 ft 333 kts 12°
2026-05-07 00:12 29.36688 104.27698 35028 ft 333 kts 12°
2026-05-07 00:12 29.41274 104.28500 35029 ft 333 kts 12°
2026-05-07 00:13 29.45863 104.29290 35029 ft 334 kts 12°
2026-05-07 00:13 29.50456 104.30076 35032 ft 334 kts 12°
2026-05-07 00:14 29.55046 104.30861 35028 ft 334 kts 12°
2026-05-07 00:14 29.59636 104.31645 35031 ft 334 kts 12°
2026-05-07 00:15 29.63454 104.32299 35029 ft 334 kts 12°
2026-05-07 00:15 29.68816 104.33217 35030 ft 333 kts 12°
2026-05-07 00:16 29.73406 104.34004 35030 ft 334 kts 12°
2026-05-07 00:16 29.77222 104.34659 35029 ft 334 kts 12°
2026-05-07 00:17 29.81815 104.35448 35026 ft 334 kts 12°
2026-05-07 00:17 29.86059 104.36177 35028 ft 334 kts 12°
2026-05-07 00:18 29.90648 104.36967 35029 ft 334 kts 12°
2026-05-07 00:18 29.95244 104.37758 35029 ft 334 kts 12°
2026-05-07 00:19 29.99833 104.38549 35030 ft 334 kts 12°
2026-05-07 00:19 30.04417 104.39340 35028 ft 333 kts 12°
2026-05-07 00:20 30.09006 104.40132 35029 ft 334 kts 12°
2026-05-07 00:20 30.13599 104.40930 35030 ft 333 kts 12°
2026-05-07 00:21 30.18186 104.41732 35029 ft 333 kts 12°
2026-05-07 00:21 30.22774 104.42536 35029 ft 333 kts 12°
2026-05-07 00:22 30.27361 104.43340 35029 ft 334 kts 12°
2026-05-07 00:22 30.31951 104.44145 35029 ft 333 kts 12°
2026-05-07 00:23 30.36538 104.44950 35029 ft 334 kts 12°
2026-05-07 00:23 30.41097 104.45750 35030 ft 333 kts 12°
2026-05-07 00:24 30.45684 104.46557 35028 ft 333 kts 12°
2026-05-07 00:24 30.50286 104.47456 35029 ft 332 kts 15°
2026-05-07 00:25 30.54595 104.49184 35028 ft 330 kts 26°
2026-05-07 00:25 30.58429 104.52106 35027 ft 332 kts 38°
2026-05-07 00:26 30.61571 104.56082 35026 ft 338 kts 50°
2026-05-07 00:26 30.63830 104.60937 35030 ft 348 kts 62°
2026-05-07 00:27 30.65308 104.66346 35029 ft 353 kts 65°
2026-05-07 00:27 30.66653 104.71831 35031 ft 353 kts 65°
2026-05-07 00:28 30.68021 104.77304 35027 ft 353 kts 65°
2026-05-07 00:28 30.69406 104.82768 35030 ft 353 kts 65°
2026-05-07 00:29 30.70796 104.88234 35027 ft 353 kts 65°
2026-05-07 00:30 30.73563 104.99129 35032 ft 353 kts 65°
2026-05-07 00:30 30.74949 105.04596 35028 ft 353 kts 65°
2026-05-07 00:31 30.76332 105.10069 35030 ft 353 kts 65°
2026-05-07 00:31 30.77711 105.15534 35029 ft 353 kts 65°
2026-05-07 00:32 30.79090 105.21008 35031 ft 353 kts 65°
2026-05-07 00:32 30.80466 105.26480 35029 ft 353 kts 65°
2026-05-07 00:33 30.81841 105.31961 35026 ft 353 kts 65°
2026-05-07 00:33 30.83213 105.37441 35025 ft 353 kts 65°
2026-05-07 00:34 30.84543 105.42941 35030 ft 354 kts 67°
2026-05-07 00:34 30.85730 105.48506 35026 ft 355 kts 68°
2026-05-07 00:35 30.86902 105.54086 35028 ft 355 kts 67°
2026-05-07 00:35 30.88081 105.59670 35029 ft 355 kts 67°
2026-05-07 00:36 30.89262 105.65254 35029 ft 355 kts 67°
2026-05-07 00:36 30.90433 105.70797 35028 ft 355 kts 67°
2026-05-07 00:37 30.91611 105.76380 35027 ft 355 kts 67°
2026-05-07 00:37 30.92786 105.81965 35030 ft 355 kts 67°
2026-05-07 00:38 30.93960 105.87555 35032 ft 355 kts 68°
2026-05-07 00:38 30.95130 105.93143 35031 ft 355 kts 68°
2026-05-07 00:39 30.96298 105.98732 35026 ft 355 kts 68°
2026-05-07 00:39 30.97100 106.04476 35029 ft 364 kts 75°
2026-05-07 00:40 30.97447 106.10381 35027 ft 366 kts 76°
2026-05-07 00:40 30.97762 106.16302 35029 ft 366 kts 76°
2026-05-07 00:41 30.98092 106.22209 35031 ft 365 kts 76°
2026-05-07 00:41 30.98430 106.28078 35030 ft 365 kts 76°
2026-05-07 00:42 30.98770 106.33991 35026 ft 365 kts 76°
2026-05-07 00:42 30.99109 106.39897 35030 ft 366 kts 76°
2026-05-07 00:43 30.99444 106.45810 35031 ft 366 kts 76°
2026-05-07 00:43 30.99777 106.51722 35029 ft 366 kts 76°
2026-05-07 00:44 31.00107 106.57635 35032 ft 366 kts 76°
2026-05-07 00:44 31.00435 106.63548 35025 ft 366 kts 76°
2026-05-07 00:45 31.00761 106.69473 35036 ft 367 kts 76°
2026-05-07 00:45 31.01083 106.75392 35028 ft 366 kts 76°
2026-05-07 00:46 31.01402 106.81305 35028 ft 366 kts 76°
2026-05-07 00:46 31.01719 106.87220 35028 ft 366 kts 76°
2026-05-07 00:47 31.02034 106.93139 35030 ft 366 kts 76°
2026-05-07 00:47 31.02341 106.99062 35027 ft 366 kts 77°
2026-05-07 00:48 31.02628 107.04986 35029 ft 366 kts 77°
2026-05-07 00:48 31.02922 107.10875 35030 ft 366 kts 77°
2026-05-07 00:49 31.03221 107.16795 35030 ft 366 kts 76°
2026-05-07 00:49 31.03521 107.22713 35029 ft 366 kts 77°
2026-05-07 00:50 31.03819 107.28635 35027 ft 366 kts 77°
2026-05-07 00:50 31.04115 107.34562 35025 ft 366 kts 77°
2026-05-07 00:51 31.04407 107.40484 35030 ft 366 kts 77°
2026-05-07 00:51 31.04643 107.46426 35027 ft 367 kts 78°
2026-05-07 00:52 31.04818 107.52381 35029 ft 368 kts 78°
2026-05-07 00:52 31.04945 107.58350 35027 ft 368 kts 78°
2026-05-07 00:53 31.05064 107.64316 35031 ft 368 kts 78°
2026-05-07 00:53 31.05181 107.70287 35029 ft 368 kts 78°
2026-05-07 00:54 31.05294 107.76257 35022 ft 368 kts 78°
2026-05-07 00:54 31.05408 107.82232 35033 ft 369 kts 78°
2026-05-07 00:55 31.05518 107.88213 35027 ft 368 kts 78°
2026-05-07 00:55 31.05626 107.94178 35030 ft 368 kts 78°
2026-05-07 00:56 31.05732 108.00109 35030 ft 368 kts 78°
2026-05-07 00:56 31.05835 108.06078 35036 ft 369 kts 79°
2026-05-07 00:57 31.05936 108.12056 35023 ft 368 kts 78°
2026-05-07 00:57 31.06033 108.18027 35026 ft 368 kts 79°
2026-05-07 00:58 31.06129 108.24005 35029 ft 369 kts 79°
2026-05-07 00:58 31.06221 108.29978 35027 ft 368 kts 79°
2026-05-07 00:59 31.06354 108.38944 35027 ft 369 kts 79°
2026-05-07 01:00 31.06439 108.44924 35026 ft 369 kts 79°
2026-05-07 01:00 31.06521 108.50897 35032 ft 368 kts 79°
2026-05-07 01:01 31.06601 108.56876 35026 ft 369 kts 79°
2026-05-07 01:01 31.06678 108.62859 35031 ft 369 kts 79°
2026-05-07 01:02 31.06734 108.68844 35028 ft 369 kts 79°
2026-05-07 01:02 31.06789 108.74833 35029 ft 369 kts 79°
2026-05-07 01:03 31.06852 108.80771 35031 ft 369 kts 79°
2026-05-07 01:03 31.06916 108.86757 35029 ft 369 kts 79°
2026-05-07 01:04 31.06980 108.92746 35026 ft 369 kts 79°
2026-05-07 01:04 31.07040 108.98730 35030 ft 369 kts 79°
2026-05-07 01:05 31.07098 109.04711 35025 ft 369 kts 79°
2026-05-07 01:05 31.07152 109.10703 35028 ft 370 kts 79°
2026-05-07 01:06 31.07204 109.16687 35026 ft 369 kts 79°
2026-05-07 01:06 31.07253 109.22674 35027 ft 369 kts 79°
2026-05-07 01:07 31.07299 109.28660 35035 ft 369 kts 79°
2026-05-07 01:07 31.07344 109.34656 35028 ft 369 kts 79°
2026-05-07 01:08 31.07378 109.39630 35030 ft 370 kts 79°
2026-05-07 01:08 31.07418 109.45638 35026 ft 370 kts 79°
2026-05-07 01:09 31.07453 109.51639 35024 ft 371 kts 79°
2026-05-07 01:09 31.07487 109.57656 35032 ft 371 kts 79°
2026-05-07 01:10 31.07505 109.63653 35028 ft 370 kts 79°
2026-05-07 01:10 31.07439 109.69662 35025 ft 376 kts 85°
2026-05-07 01:10 31.06960 109.72703 35026 ft 387 kts 94°
2026-05-07 01:11 31.06194 109.75736 35028 ft 393 kts 97°
2026-05-07 01:11 31.04426 109.81797 35033 ft 396 kts 97°
2026-05-07 01:12 31.02685 109.87761 35023 ft 393 kts 97°
2026-05-07 01:12 31.00963 109.93810 35031 ft 393 kts 97°
2026-05-07 01:13 30.99257 109.99860 35026 ft 393 kts 97°
2026-05-07 01:13 30.97551 110.05910 35033 ft 393 kts 97°
2026-05-07 01:14 30.95841 110.11960 35030 ft 393 kts 97°
2026-05-07 01:14 30.94131 110.18003 35029 ft 393 kts 97°
2026-05-07 01:15 30.92414 110.24056 35034 ft 393 kts 97°
2026-05-07 01:15 30.90706 110.30062 35026 ft 393 kts 97°
2026-05-07 01:16 30.88973 110.36147 35030 ft 393 kts 97°
2026-05-07 01:16 30.87263 110.42138 35030 ft 391 kts 97°
2026-05-07 01:17 30.85540 110.48165 35033 ft 393 kts 97°
2026-05-07 01:17 30.83811 110.54201 35031 ft 393 kts 97°
2026-05-07 01:18 30.82077 110.60241 35029 ft 394 kts 97°
2026-05-07 01:18 30.80327 110.66278 35034 ft 394 kts 97°
2026-05-07 01:19 30.78571 110.72294 35029 ft 393 kts 97°
2026-05-07 01:19 30.76823 110.78326 35032 ft 394 kts 97°
2026-05-07 01:20 30.75077 110.84355 35031 ft 393 kts 97°
2026-05-07 01:20 30.73328 110.90384 35034 ft 394 kts 97°
2026-05-07 01:21 30.71576 110.96416 35029 ft 394 kts 97°
2026-05-07 01:21 30.69821 111.02445 35030 ft 394 kts 97°
2026-05-07 01:22 30.68063 111.08473 35027 ft 394 kts 97°
2026-05-07 01:22 30.66303 111.14492 35027 ft 394 kts 97°
2026-05-07 01:23 30.64540 111.20517 35029 ft 394 kts 97°
2026-05-07 01:23 30.62941 111.26553 35030 ft 383 kts 89°
2026-05-07 01:23 30.62748 111.29556 35030 ft 366 kts 77°
2026-05-07 01:24 30.62997 111.32462 35031 ft 360 kts 72°
2026-05-07 01:24 30.63840 111.38177 35030 ft 359 kts 71°
2026-05-07 01:25 30.64682 111.43890 35026 ft 360 kts 71°
2026-05-07 01:25 30.65350 111.49668 35030 ft 364 kts 75°
2026-05-07 01:26 30.65687 111.55556 35030 ft 366 kts 77°
2026-05-07 01:26 30.65974 111.61461 35029 ft 366 kts 77°
2026-05-07 01:27 30.66267 111.67363 35030 ft 366 kts 77°
2026-05-07 01:27 30.66564 111.73265 35027 ft 366 kts 76°
2026-05-07 01:28 30.66864 111.79165 35031 ft 366 kts 77°
2026-05-07 01:28 30.67163 111.85063 35027 ft 366 kts 77°
2026-05-07 01:29 30.67461 111.90965 35029 ft 366 kts 77°
2026-05-07 01:29 30.67768 111.96827 35030 ft 365 kts 76°
2026-05-07 01:30 30.68156 112.02700 35028 ft 365 kts 76°
2026-05-07 01:30 30.68563 112.08572 35030 ft 365 kts 75°
2026-05-07 01:31 30.68968 112.14443 35028 ft 365 kts 76°
2026-05-07 01:31 30.69370 112.20316 35027 ft 365 kts 76°
2026-05-07 01:32 30.69768 112.26194 35031 ft 365 kts 76°
2026-05-07 01:32 30.70163 112.32067 35030 ft 365 kts 76°
2026-05-07 01:33 30.70556 112.37945 35029 ft 365 kts 76°
2026-05-07 01:33 30.70945 112.43820 35030 ft 365 kts 76°
2026-05-07 01:34 30.71333 112.49698 35027 ft 365 kts 76°
2026-05-07 01:34 30.71717 112.55580 35029 ft 365 kts 76°
2026-05-07 01:35 30.72099 112.61454 35028 ft 365 kts 76°
2026-05-07 01:35 30.72478 112.67335 35028 ft 365 kts 76°
2026-05-07 01:36 30.72855 112.73218 35028 ft 365 kts 76°
2026-05-07 01:36 30.73229 112.79099 35029 ft 365 kts 76°
2026-05-07 01:37 30.73598 112.84947 35030 ft 365 kts 76°
2026-05-07 01:37 30.73967 112.90831 35030 ft 365 kts 76°
2026-05-07 01:38 30.74315 112.96723 35030 ft 365 kts 76°
2026-05-07 01:38 30.74663 113.02613 35030 ft 365 kts 76°
2026-05-07 01:39 30.75019 113.08503 35030 ft 365 kts 76°
2026-05-07 01:39 30.75355 113.14398 35030 ft 367 kts 77°
2026-05-07 01:40 30.75540 113.20335 35030 ft 368 kts 78°
2026-05-07 01:40 30.75688 113.26279 35028 ft 368 kts 78°
2026-05-07 01:41 30.75838 113.32229 35031 ft 368 kts 78°
2026-05-07 01:41 30.75989 113.38172 35028 ft 368 kts 78°
2026-05-07 01:42 30.76139 113.44115 35029 ft 368 kts 78°
2026-05-07 01:42 30.76287 113.50060 35030 ft 368 kts 78°
2026-05-07 01:43 30.76431 113.56009 35030 ft 368 kts 78°
2026-05-07 01:43 30.76574 113.61954 35030 ft 368 kts 78°
2026-05-07 01:44 30.76713 113.67904 35029 ft 368 kts 78°
2026-05-07 01:44 30.76850 113.73851 35030 ft 368 kts 78°
2026-05-07 01:45 30.76984 113.79797 35030 ft 368 kts 78°
2026-05-07 01:45 30.77114 113.85710 35029 ft 368 kts 78°
2026-05-07 01:46 30.77243 113.91660 35028 ft 368 kts 78°
2026-05-07 01:46 30.77369 113.97607 35030 ft 368 kts 78°
2026-05-07 01:47 30.77523 114.03555 35030 ft 367 kts 77°
2026-05-07 01:47 30.77745 114.09395 35028 ft 367 kts 77°
2026-05-07 01:48 30.77987 114.15316 35030 ft 367 kts 77°
2026-05-07 01:48 30.78508 114.21140 35030 ft 354 kts 66°
2026-05-07 01:49 30.80118 114.26472 35030 ft 348 kts 60°
2026-05-07 01:49 30.81900 114.31712 35029 ft 348 kts 61°
2026-05-07 01:50 30.83636 114.36973 35029 ft 349 kts 61°
2026-05-07 01:50 30.85352 114.42254 35029 ft 349 kts 62°
2026-05-07 01:51 30.87061 114.47538 35030 ft 349 kts 61°
2026-05-07 01:51 30.88776 114.52819 35029 ft 349 kts 61°
2026-05-07 01:52 30.90494 114.58106 35030 ft 349 kts 61°
2026-05-07 01:52 30.92209 114.63392 35029 ft 349 kts 61°
2026-05-07 01:53 30.93923 114.68679 35030 ft 349 kts 62°
2026-05-07 01:53 30.95623 114.73933 35030 ft 349 kts 62°
2026-05-07 01:54 30.97342 114.79257 35029 ft 349 kts 62°
2026-05-07 01:54 30.99038 114.84515 35031 ft 349 kts 62°
2026-05-07 01:55 31.00744 114.89814 35030 ft 349 kts 62°
2026-05-07 01:55 31.02444 114.95117 35029 ft 349 kts 62°
2026-05-07 01:56 31.04135 115.00423 35029 ft 349 kts 62°
2026-05-07 01:56 31.05555 115.04868 35031 ft 349 kts 62°
2026-05-07 01:57 31.07522 115.11027 35028 ft 348 kts 62°
2026-05-07 01:57 31.08937 115.15463 35031 ft 349 kts 62°
2026-05-07 01:58 31.10904 115.21636 35026 ft 350 kts 62°
2026-05-07 01:58 31.12308 115.26096 35027 ft 349 kts 62°
2026-05-07 01:59 31.14005 115.31402 35026 ft 349 kts 62°
2026-05-07 01:59 31.15722 115.36697 35027 ft 349 kts 61°
2026-05-07 02:00 31.17439 115.41993 35029 ft 349 kts 61°
2026-05-07 02:00 31.19155 115.47291 35026 ft 349 kts 61°
2026-05-07 02:01 31.20867 115.52591 35031 ft 349 kts 62°
2026-05-07 02:01 31.22568 115.57862 35024 ft 349 kts 62°
2026-05-07 02:02 31.24282 115.63181 35030 ft 350 kts 62°
2026-05-07 02:02 31.25992 115.68500 35032 ft 350 kts 62°
2026-05-07 02:03 31.27701 115.73826 35027 ft 349 kts 62°
2026-05-07 02:03 31.29400 115.79142 35032 ft 349 kts 62°
2026-05-07 02:04 31.31089 115.84463 35027 ft 349 kts 62°
2026-05-07 02:04 31.32793 115.89779 35031 ft 349 kts 61°
2026-05-07 02:05 31.34519 115.95074 35027 ft 349 kts 61°
2026-05-07 02:05 31.36250 116.00376 35031 ft 349 kts 61°
2026-05-07 02:06 31.37975 116.05667 35030 ft 349 kts 61°
2026-05-07 02:06 31.39710 116.10997 35035 ft 350 kts 61°
2026-05-07 02:07 31.41436 116.16311 35031 ft 349 kts 61°
2026-05-07 02:07 31.44020 116.24279 35030 ft 349 kts 61°
2026-05-07 02:08 31.45739 116.29591 35028 ft 349 kts 61°
2026-05-07 02:08 31.47457 116.34910 35030 ft 349 kts 61°
2026-05-07 02:09 31.49148 116.40152 35029 ft 349 kts 61°
2026-05-07 02:09 31.50861 116.45474 35030 ft 349 kts 62°
2026-05-07 02:10 31.52572 116.50797 35027 ft 349 kts 62°
2026-05-07 02:10 31.54269 116.56085 35029 ft 349 kts 62°
2026-05-07 02:11 31.55976 116.61411 35030 ft 349 kts 62°
2026-05-07 02:11 31.57681 116.66742 35030 ft 349 kts 62°
2026-05-07 02:12 31.59384 116.72075 35029 ft 349 kts 62°
2026-05-07 02:12 31.61060 116.77332 35031 ft 349 kts 62°
2026-05-07 02:13 31.62743 116.82678 35027 ft 349 kts 62°
2026-05-07 02:13 31.64425 116.88022 35030 ft 349 kts 62°
2026-05-07 02:14 31.66065 116.93210 35029 ft 349 kts 62°
2026-05-07 02:14 31.67755 116.98553 35027 ft 349 kts 62°
2026-05-07 02:15 31.69425 117.03911 35027 ft 350 kts 62°
2026-05-07 02:15 31.71078 117.09281 35029 ft 350 kts 62°
2026-05-07 02:16 31.72730 117.14653 35029 ft 350 kts 62°
2026-05-07 02:16 31.74381 117.20025 35031 ft 350 kts 62°
2026-05-07 02:17 31.76029 117.25396 35027 ft 350 kts 62°
2026-05-07 02:17 31.77340 117.30947 35025 ft 362 kts 75°
2026-05-07 02:18 31.77212 117.36996 35031 ft 376 kts 84°
2026-05-07 02:18 31.76708 117.43118 35030 ft 376 kts 85°
2026-05-07 02:19 31.76232 117.49237 35030 ft 376 kts 84°
2026-05-07 02:19 31.75797 117.55307 35028 ft 375 kts 84°
2026-05-07 02:20 31.75367 117.61453 35031 ft 375 kts 84°
2026-05-07 02:20 31.74945 117.67520 35028 ft 375 kts 84°
2026-05-07 02:21 31.74516 117.73635 35027 ft 375 kts 84°
2026-05-07 02:21 31.74084 117.79747 35027 ft 375 kts 84°
2026-05-07 02:22 31.73650 117.85857 35028 ft 376 kts 84°
2026-05-07 02:22 31.73212 117.91972 35030 ft 376 kts 84°
2026-05-07 02:23 31.72771 117.98084 35028 ft 376 kts 84°
2026-05-07 02:23 31.72328 118.04193 35030 ft 376 kts 84°
2026-05-07 02:24 31.71881 118.10307 35029 ft 376 kts 84°
2026-05-07 02:24 31.71438 118.16418 35030 ft 375 kts 84°
2026-05-07 02:25 31.71007 118.22530 35030 ft 375 kts 84°
2026-05-07 02:25 31.70581 118.28639 35029 ft 375 kts 84°
2026-05-07 02:26 31.70153 118.34752 35029 ft 375 kts 84°
2026-05-07 02:26 31.69723 118.40858 35029 ft 375 kts 84°
2026-05-07 02:27 31.69289 118.46970 35031 ft 376 kts 84°
2026-05-07 02:27 31.68853 118.53079 35028 ft 376 kts 84°
2026-05-07 02:28 31.68413 118.59189 35030 ft 375 kts 84°
2026-05-07 02:28 31.67971 118.65295 35030 ft 375 kts 84°
2026-05-07 02:29 31.67526 118.71405 35030 ft 376 kts 84°
2026-05-07 02:29 31.67077 118.77515 35030 ft 376 kts 84°
2026-05-07 02:30 31.66626 118.83623 35031 ft 376 kts 84°
2026-05-07 02:30 31.66172 118.89737 35026 ft 376 kts 84°
2026-05-07 02:31 31.65715 118.95845 35029 ft 376 kts 84°
2026-05-07 02:31 31.65243 119.01955 35030 ft 376 kts 84°
2026-05-07 02:32 31.64854 119.08057 35028 ft 374 kts 83°
2026-05-07 02:32 31.64546 119.14110 35030 ft 374 kts 83°
2026-05-07 02:33 31.64271 119.20196 35030 ft 373 kts 82°
2026-05-07 02:33 31.64002 119.26281 35028 ft 373 kts 82°
2026-05-07 02:34 31.63730 119.32362 35029 ft 373 kts 82°
2026-05-07 02:34 31.63453 119.38444 35029 ft 374 kts 83°
2026-05-07 02:35 31.63164 119.44530 35029 ft 374 kts 83°
2026-05-07 02:35 31.62875 119.50615 35028 ft 374 kts 83°
2026-05-07 02:36 31.62584 119.56701 35030 ft 374 kts 83°
2026-05-07 02:36 31.62291 119.62791 35029 ft 374 kts 83°
2026-05-07 02:37 31.62000 119.68877 35028 ft 374 kts 82°
2026-05-07 02:37 31.61719 119.74961 35030 ft 373 kts 82°
2026-05-07 02:38 31.61442 119.81044 35029 ft 373 kts 82°
2026-05-07 02:38 31.61163 119.87128 35028 ft 373 kts 82°
2026-05-07 02:39 31.60881 119.93212 35028 ft 373 kts 82°
2026-05-07 02:39 31.60599 119.99252 35030 ft 374 kts 83°
2026-05-07 02:40 31.60312 120.05338 35029 ft 374 kts 83°
2026-05-07 02:40 31.60022 120.11419 35030 ft 374 kts 83°
2026-05-07 02:41 31.59728 120.17505 35028 ft 374 kts 83°
2026-05-07 02:41 31.59432 120.23587 35031 ft 374 kts 83°
2026-05-07 02:42 31.59120 120.29676 35027 ft 375 kts 85°
2026-05-07 02:42 31.58660 120.32740 35030 ft 387 kts 93°
2026-05-07 02:42 31.57883 120.35789 35029 ft 393 kts 97°
2026-05-07 02:43 31.56040 120.41854 35029 ft 396 kts 98°
2026-05-07 02:43 31.54176 120.47916 35030 ft 395 kts 98°
2026-05-07 02:44 31.52349 120.53986 35030 ft 395 kts 98°
2026-05-07 02:44 31.50845 120.59028 35029 ft 394 kts 98°
2026-05-07 02:45 31.48730 120.66124 35029 ft 394 kts 98°
2026-05-07 02:45 31.47225 120.71168 35028 ft 395 kts 98°
2026-05-07 02:46 31.45412 120.77231 35029 ft 395 kts 98°
2026-05-07 02:46 31.43594 120.83297 35028 ft 395 kts 98°
2026-05-07 02:47 31.41774 120.89357 35028 ft 395 kts 98°
2026-05-07 02:47 31.39951 120.95417 35029 ft 395 kts 98°
2026-05-07 02:48 31.38124 121.01476 35030 ft 395 kts 98°
2026-05-07 02:48 31.36295 121.07532 35030 ft 395 kts 98°
2026-05-07 02:49 31.34454 121.13546 35030 ft 396 kts 98°
2026-05-07 02:49 31.32577 121.19585 35029 ft 396 kts 98°
2026-05-07 02:50 31.30702 121.25632 35029 ft 395 kts 98°
2026-05-07 02:50 31.28830 121.31679 35028 ft 395 kts 98°
2026-05-07 02:51 31.27143 121.37750 35029 ft 390 kts 95°
2026-05-07 02:51 31.25667 121.43843 35030 ft 390 kts 94°
2026-05-07 02:52 31.24206 121.49940 35029 ft 390 kts 94°
2026-05-07 02:52 31.22731 121.56035 35029 ft 390 kts 95°
2026-05-07 02:53 31.21247 121.62131 35030 ft 390 kts 95°
2026-05-07 02:53 31.19759 121.68223 35029 ft 390 kts 95°
2026-05-07 02:54 31.18269 121.74313 35030 ft 389 kts 94°
2026-05-07 02:54 31.17608 121.80367 35029 ft 363 kts 74°
2026-05-07 02:55 31.18553 121.86054 35030 ft 355 kts 67°
2026-05-07 02:55 31.19738 121.91655 35029 ft 355 kts 68°
2026-05-07 02:56 31.20871 121.97281 35028 ft 356 kts 68°
2026-05-07 02:56 31.21966 122.02921 35029 ft 356 kts 68°
2026-05-07 02:57 31.23045 122.08568 35028 ft 356 kts 68°
2026-05-07 02:57 31.24120 122.14220 35028 ft 356 kts 69°
2026-05-07 02:58 31.25192 122.19877 35028 ft 356 kts 69°
2026-05-07 02:58 31.26261 122.25533 35028 ft 356 kts 69°
2026-05-07 02:59 31.27328 122.31192 35030 ft 356 kts 69°
2026-05-07 02:59 31.28392 122.36853 35029 ft 356 kts 69°
2026-05-07 03:00 31.29454 122.42515 35029 ft 357 kts 69°
2026-05-07 03:00 31.30515 122.48135 35029 ft 356 kts 69°
2026-05-07 03:01 31.31595 122.53791 35028 ft 356 kts 68°
2026-05-07 03:01 31.32686 122.59482 35029 ft 356 kts 68°
2026-05-07 03:02 31.33769 122.65136 35028 ft 356 kts 68°
2026-05-07 03:02 31.34850 122.70789 35029 ft 356 kts 68°
2026-05-07 03:03 31.35929 122.76446 35029 ft 356 kts 68°
2026-05-07 03:03 31.37018 122.82100 35029 ft 356 kts 68°
2026-05-07 03:04 31.38116 122.87755 35029 ft 356 kts 68°
2026-05-07 03:04 31.39205 122.93359 35028 ft 356 kts 68°
2026-05-07 03:05 31.40301 122.99015 35029 ft 356 kts 68°
2026-05-07 03:05 31.41395 123.04669 35028 ft 356 kts 68°
2026-05-07 03:06 31.42486 123.10322 35028 ft 356 kts 68°
2026-05-07 03:06 31.43575 123.15981 35028 ft 356 kts 68°
2026-05-07 03:07 31.44661 123.21640 35029 ft 356 kts 68°
2026-05-07 03:07 31.45746 123.27302 35029 ft 356 kts 68°
2026-05-07 03:08 31.46826 123.32961 35029 ft 356 kts 68°
2026-05-07 03:08 31.47906 123.38628 35029 ft 356 kts 68°
2026-05-07 03:09 31.48983 123.44293 35030 ft 356 kts 68°
2026-05-07 03:09 31.50069 123.49954 35029 ft 355 kts 68°
2026-05-07 03:10 31.51268 123.55559 35029 ft 354 kts 67°
2026-05-07 03:10 31.52506 123.61149 35028 ft 354 kts 66°
2026-05-07 03:11 31.53746 123.66740 35030 ft 354 kts 66°
2026-05-07 03:11 31.54983 123.72337 35029 ft 354 kts 67°
2026-05-07 03:12 31.56217 123.77930 35028 ft 354 kts 67°
2026-05-07 03:12 31.57447 123.83526 35028 ft 354 kts 67°
2026-05-07 03:13 31.58668 123.89088 35028 ft 354 kts 67°
2026-05-07 03:13 31.59894 123.94687 35029 ft 355 kts 67°
2026-05-07 03:14 31.61128 124.00328 35028 ft 355 kts 67°
2026-05-07 03:15 31.62977 124.08687 35028 ft 354 kts 66°
2026-05-07 03:15 31.64220 124.14278 35028 ft 354 kts 66°
2026-05-07 03:16 31.65464 124.19877 35028 ft 354 kts 66°
2026-05-07 03:16 31.66705 124.25471 35028 ft 354 kts 66°
2026-05-07 03:17 31.67945 124.31072 35028 ft 354 kts 67°
2026-05-07 03:17 31.69182 124.36675 35028 ft 354 kts 67°
2026-05-07 03:18 31.70416 124.42275 35029 ft 354 kts 67°
2026-05-07 03:18 31.71649 124.47882 35029 ft 354 kts 67°
2026-05-07 03:19 31.72878 124.53485 35029 ft 354 kts 67°
2026-05-07 03:19 31.74106 124.59096 35029 ft 355 kts 67°
2026-05-07 03:20 31.75329 124.64700 35029 ft 355 kts 67°
2026-05-07 03:20 31.76552 124.70313 35029 ft 355 kts 67°
2026-05-07 03:21 31.77772 124.75928 35029 ft 355 kts 67°
2026-05-07 03:21 31.78990 124.81541 35030 ft 355 kts 67°
2026-05-07 03:22 31.80203 124.87148 35027 ft 355 kts 67°
2026-05-07 03:22 31.81416 124.92768 34931 ft 354 kts 67°
2026-05-07 03:23 31.82554 124.98429 34927 ft 359 kts 72°
2026-05-07 03:23 31.82728 125.01399 34928 ft 372 kts 82°
2026-05-07 03:23 31.82444 125.04460 34931 ft 380 kts 88°
2026-05-07 03:24 31.81415 125.10611 34929 ft 385 kts 91°
2026-05-07 03:24 31.80333 125.16768 34929 ft 384 kts 90°
2026-05-07 03:25 31.79302 125.22925 34929 ft 384 kts 90°
2026-05-07 03:25 31.78317 125.28949 34929 ft 383 kts 90°
2026-05-07 03:26 31.77322 125.35054 34929 ft 383 kts 90°
2026-05-07 03:26 31.76338 125.41078 34929 ft 384 kts 90°
2026-05-07 03:27 31.75331 125.47228 34929 ft 384 kts 90°
2026-05-07 03:27 31.74334 125.53291 34932 ft 383 kts 90°
2026-05-07 03:28 31.73334 125.59356 34929 ft 384 kts 90°
2026-05-07 03:28 31.72440 125.65409 34926 ft 375 kts 83°
2026-05-07 03:28 31.72524 125.68400 34929 ft 360 kts 72°
2026-05-07 03:29 31.73022 125.71250 34930 ft 355 kts 67°
2026-05-07 03:29 31.74328 125.76821 34931 ft 353 kts 66°
2026-05-07 03:30 31.75635 125.82392 34928 ft 354 kts 66°
2026-05-07 03:30 31.76897 125.87989 34928 ft 354 kts 66°
2026-05-07 03:31 31.78137 125.93597 34928 ft 355 kts 67°
2026-05-07 03:31 31.79366 125.99210 34932 ft 355 kts 67°
2026-05-07 03:32 31.80386 126.03877 34928 ft 355 kts 67°
2026-05-07 03:32 31.81613 126.09494 34928 ft 355 kts 67°
2026-05-07 03:33 31.82839 126.15114 34928 ft 355 kts 67°
2026-05-07 03:33 31.84062 126.20735 34928 ft 355 kts 67°
2026-05-07 03:34 31.85283 126.26357 34928 ft 355 kts 67°
2026-05-07 03:34 31.86502 126.31979 34928 ft 355 kts 67°
2026-05-07 03:35 31.87717 126.37600 34928 ft 355 kts 67°
2026-05-07 03:35 31.88931 126.43229 34928 ft 355 kts 67°
2026-05-07 03:36 31.90143 126.48858 34928 ft 355 kts 67°
2026-05-07 03:36 31.91368 126.54483 34933 ft 355 kts 67°
2026-05-07 03:37 31.92593 126.60067 34931 ft 355 kts 67°
2026-05-07 03:37 31.93827 126.65685 34928 ft 355 kts 67°
2026-05-07 03:38 31.95060 126.71307 34928 ft 355 kts 67°
2026-05-07 03:38 31.96290 126.76932 34928 ft 355 kts 67°
2026-05-07 03:39 31.97519 126.82560 34928 ft 355 kts 67°
2026-05-07 03:39 31.98745 126.88188 34928 ft 355 kts 67°
2026-05-07 03:40 31.99969 126.93816 34928 ft 355 kts 67°
2026-05-07 03:40 32.01190 126.99448 34933 ft 355 kts 67°
2026-05-07 03:41 32.02409 127.05083 34928 ft 355 kts 67°
2026-05-07 03:41 32.03653 127.10703 34929 ft 352 kts 64°
2026-05-07 03:42 32.05431 127.16007 34929 ft 347 kts 59°
2026-05-07 03:42 32.07399 127.21190 34929 ft 346 kts 58°
2026-05-07 03:43 32.09367 127.26376 34929 ft 346 kts 58°
2026-05-07 03:43 32.11323 127.31570 34929 ft 346 kts 59°
2026-05-07 03:44 32.13271 127.36772 34929 ft 347 kts 59°
2026-05-07 03:44 32.15212 127.41976 34929 ft 347 kts 59°
2026-05-07 03:45 32.17154 127.47182 34929 ft 347 kts 59°
2026-05-07 03:45 32.19096 127.52390 34929 ft 347 kts 59°
2026-05-07 03:46 32.21036 127.57603 34929 ft 347 kts 59°
2026-05-07 03:46 32.22974 127.62816 34929 ft 347 kts 59°
2026-05-07 03:47 32.24909 127.68029 34929 ft 347 kts 59°
2026-05-07 03:47 32.26844 127.73248 34929 ft 347 kts 59°
2026-05-07 03:48 32.28776 127.78472 34929 ft 347 kts 59°
2026-05-07 03:48 32.30707 127.83696 34929 ft 347 kts 59°
2026-05-07 03:49 32.32634 127.88922 34929 ft 347 kts 59°
2026-05-07 03:49 32.34548 127.94117 34929 ft 347 kts 59°
2026-05-07 03:50 32.36469 127.99342 34929 ft 347 kts 59°
2026-05-07 03:50 32.38391 128.04575 34929 ft 347 kts 59°
2026-05-07 03:51 32.40312 128.09814 34929 ft 347 kts 59°
2026-05-07 03:51 32.42229 128.15052 34929 ft 347 kts 59°
2026-05-07 03:52 32.44145 128.20294 34929 ft 347 kts 59°
2026-05-07 03:52 32.46056 128.25543 34929 ft 347 kts 59°
2026-05-07 03:53 32.47950 128.30801 34929 ft 347 kts 59°
2026-05-07 03:53 32.49849 128.36056 34929 ft 347 kts 59°
2026-05-07 03:54 32.51753 128.41308 34929 ft 347 kts 59°
2026-05-07 03:54 32.53657 128.46563 34929 ft 347 kts 59°
2026-05-07 03:55 32.55547 128.51784 34929 ft 347 kts 59°
2026-05-07 03:55 32.57448 128.57044 34929 ft 347 kts 59°
2026-05-07 03:56 32.59348 128.62307 34929 ft 347 kts 59°
2026-05-07 03:56 32.61245 128.67572 34931 ft 347 kts 59°
2026-05-07 03:57 32.63141 128.72841 34930 ft 347 kts 59°
2026-05-07 03:57 32.65033 128.78111 34929 ft 347 kts 59°
2026-05-07 03:58 32.66920 128.83385 34928 ft 348 kts 61°
2026-05-07 03:58 32.68335 128.88950 34926 ft 355 kts 67°
2026-05-07 03:59 32.69478 128.94665 34928 ft 356 kts 68°
2026-05-07 03:59 32.70615 129.00381 34928 ft 356 kts 68°
2026-05-07 04:00 32.71765 129.06091 34928 ft 356 kts 68°
2026-05-07 04:00 32.72919 129.11801 34930 ft 356 kts 68°
2026-05-07 04:01 32.74073 129.17512 34928 ft 356 kts 68°
2026-05-07 04:01 32.75225 129.23226 34930 ft 356 kts 68°
2026-05-07 04:02 32.76374 129.28940 34931 ft 356 kts 68°
2026-05-07 04:02 32.77522 129.34658 34932 ft 356 kts 68°
2026-05-07 04:03 32.78649 129.40291 34928 ft 356 kts 68°
2026-05-07 04:03 32.79791 129.46011 34928 ft 356 kts 68°
2026-05-07 04:04 32.80930 129.51734 34928 ft 356 kts 68°
2026-05-07 04:04 32.82067 129.57459 34928 ft 356 kts 68°
2026-05-07 04:05 32.83200 129.63178 34928 ft 356 kts 68°
2026-05-07 04:05 32.84332 129.68903 34931 ft 356 kts 68°
2026-05-07 04:06 32.85365 129.74678 34928 ft 359 kts 70°
2026-05-07 04:06 32.86205 129.80492 34931 ft 360 kts 71°
2026-05-07 04:07 32.87037 129.86352 34928 ft 359 kts 71°
2026-05-07 04:07 32.87877 129.92214 34929 ft 359 kts 71°
2026-05-07 04:08 32.88720 129.98072 34930 ft 359 kts 71°
2026-05-07 04:08 32.89561 130.03931 34927 ft 359 kts 71°
2026-05-07 04:09 32.90400 130.09794 34927 ft 359 kts 71°
2026-05-07 04:09 32.91236 130.15654 34927 ft 359 kts 71°
2026-05-07 04:10 32.92070 130.21518 34928 ft 359 kts 71°
2026-05-07 04:10 32.92902 130.27384 34928 ft 359 kts 71°
2026-05-07 04:11 32.93730 130.33249 34928 ft 360 kts 71°
2026-05-07 04:11 32.94556 130.39122 34934 ft 360 kts 71°
2026-05-07 04:12 32.95379 130.44994 34928 ft 360 kts 71°
2026-05-07 04:12 32.96200 130.50867 34927 ft 360 kts 71°
2026-05-07 04:13 32.97017 130.56739 34927 ft 360 kts 71°
2026-05-07 04:13 32.97832 130.62616 34928 ft 360 kts 71°
2026-05-07 04:14 32.98645 130.68494 34928 ft 360 kts 71°
2026-05-07 04:14 32.99435 130.74378 34929 ft 360 kts 71°
2026-05-07 04:15 33.00225 130.80261 34928 ft 359 kts 71°
2026-05-07 04:15 33.01024 130.86143 34927 ft 360 kts 71°
2026-05-07 04:16 33.01818 130.91986 34929 ft 359 kts 71°
2026-05-07 04:16 33.02616 130.97866 34932 ft 360 kts 71°
2026-05-07 04:17 33.03413 131.03755 34932 ft 360 kts 71°
2026-05-07 04:17 33.04206 131.09640 34930 ft 360 kts 71°
2026-05-07 04:18 33.04997 131.15532 34930 ft 359 kts 71°
2026-05-07 04:18 33.05783 131.21413 34927 ft 360 kts 71°
2026-05-07 04:19 33.06569 131.27309 34931 ft 360 kts 71°
2026-05-07 04:19 33.07353 131.33209 34930 ft 360 kts 71°
2026-05-07 04:20 33.08129 131.39105 34928 ft 360 kts 72°
2026-05-07 04:20 33.08764 131.44011 34928 ft 360 kts 72°
2026-05-07 04:21 33.09919 131.52861 34927 ft 360 kts 72°
2026-05-07 04:21 33.10693 131.58773 34931 ft 361 kts 72°
2026-05-07 04:22 33.11464 131.64676 34928 ft 360 kts 72°
2026-05-07 04:22 33.12233 131.70583 34928 ft 360 kts 72°
2026-05-07 04:23 33.13000 131.76491 34933 ft 361 kts 72°
2026-05-07 04:23 33.13764 131.82405 34928 ft 361 kts 72°
2026-05-07 04:24 33.14524 131.88317 34928 ft 360 kts 72°
2026-05-07 04:24 33.15282 131.94224 34928 ft 360 kts 72°
2026-05-07 04:25 33.16037 132.00139 34933 ft 361 kts 72°
2026-05-07 04:25 33.16790 132.06056 34928 ft 361 kts 72°
2026-05-07 04:26 33.17539 132.11968 34928 ft 361 kts 72°
2026-05-07 04:26 33.18270 132.17895 34928 ft 361 kts 72°
2026-05-07 04:27 33.19004 132.23818 34928 ft 361 kts 72°
2026-05-07 04:27 33.19742 132.29738 34928 ft 361 kts 72°
2026-05-07 04:28 33.20481 132.35661 34927 ft 361 kts 72°
2026-05-07 04:28 33.21217 132.41585 34929 ft 361 kts 72°
2026-05-07 04:29 33.21951 132.47507 34928 ft 361 kts 72°
2026-05-07 04:29 33.22683 132.53440 34930 ft 361 kts 72°
2026-05-07 04:30 33.23412 132.59380 34928 ft 361 kts 72°
2026-05-07 04:30 33.24126 132.65314 34933 ft 361 kts 72°
2026-05-07 04:31 33.24838 132.71208 34927 ft 361 kts 72°
2026-05-07 04:31 33.25554 132.77132 34931 ft 361 kts 72°
2026-05-07 04:32 33.26276 132.83087 34935 ft 363 kts 72°
2026-05-07 04:32 33.26990 132.89037 34925 ft 361 kts 72°
2026-05-07 04:33 33.27702 132.94974 34926 ft 361 kts 72°
2026-05-07 04:33 33.28410 133.00910 34917 ft 361 kts 72°
2026-05-07 04:34 33.29117 133.06859 34929 ft 363 kts 72°
2026-05-07 04:34 33.29809 133.12810 34942 ft 362 kts 72°
2026-05-07 04:35 33.30506 133.18770 34938 ft 363 kts 72°
2026-05-07 04:35 33.31201 133.24723 34925 ft 361 kts 72°
2026-05-07 04:36 33.31895 133.30667 34928 ft 361 kts 72°
2026-05-07 04:36 33.32588 133.36614 34928 ft 361 kts 72°
2026-05-07 04:37 33.33276 133.42562 34928 ft 361 kts 72°
2026-05-07 04:37 33.33963 133.48513 34928 ft 361 kts 72°
2026-05-07 04:38 33.34646 133.54467 34929 ft 361 kts 72°
2026-05-07 04:38 33.35327 133.60420 34928 ft 361 kts 72°
2026-05-07 04:39 33.36004 133.66373 34928 ft 361 kts 73°
2026-05-07 04:39 33.36680 133.72330 34928 ft 361 kts 73°
2026-05-07 04:40 33.37352 133.78289 34928 ft 361 kts 73°
2026-05-07 04:40 33.38021 133.84248 34928 ft 361 kts 73°
2026-05-07 04:41 33.38688 133.90208 34928 ft 361 kts 73°
2026-05-07 04:41 33.39351 133.96169 34928 ft 362 kts 73°
2026-05-07 04:42 33.40013 134.02137 34928 ft 362 kts 73°
2026-05-07 04:42 33.40648 134.08057 34931 ft 361 kts 73°
2026-05-07 04:43 33.41284 134.14016 34931 ft 361 kts 73°
2026-05-07 04:43 33.41929 134.19978 34929 ft 362 kts 73°
2026-05-07 04:44 33.42578 134.25946 34928 ft 362 kts 73°
2026-05-07 04:44 33.43224 134.31918 34928 ft 362 kts 73°
2026-05-07 04:45 33.43868 134.37893 34928 ft 362 kts 73°
2026-05-07 04:45 33.44510 134.43869 34928 ft 362 kts 73°
2026-05-07 04:46 33.45148 134.49842 34928 ft 362 kts 73°
2026-05-07 04:46 33.45777 134.55823 34928 ft 362 kts 73°
2026-05-07 04:47 33.46400 134.61803 34932 ft 362 kts 73°
2026-05-07 04:47 33.47027 134.67785 34928 ft 362 kts 73°
2026-05-07 04:48 33.47653 134.73767 34928 ft 362 kts 73°
2026-05-07 04:48 33.48278 134.79750 34929 ft 362 kts 73°
2026-05-07 04:49 33.48899 134.85733 34928 ft 362 kts 73°
2026-05-07 04:49 33.49518 134.91716 34929 ft 362 kts 73°
2026-05-07 04:50 33.50132 134.97702 34928 ft 362 kts 73°
2026-05-07 04:50 33.50730 135.03655 34928 ft 362 kts 73°
2026-05-07 04:51 33.51334 135.09645 34929 ft 362 kts 73°
2026-05-07 04:51 33.51940 135.15636 34928 ft 362 kts 73°
2026-05-07 04:52 33.52544 135.21629 34928 ft 362 kts 73°
2026-05-07 04:52 33.53145 135.27624 34928 ft 362 kts 73°
2026-05-07 04:53 33.53744 135.33621 34935 ft 362 kts 73°
2026-05-07 04:53 33.54339 135.39617 34928 ft 362 kts 73°
2026-05-07 04:54 33.54932 135.45616 34928 ft 362 kts 73°
2026-05-07 04:54 33.55523 135.51621 34929 ft 363 kts 73°
2026-05-07 04:55 33.56111 135.57633 34934 ft 363 kts 73°
2026-05-07 04:55 33.56695 135.63643 34928 ft 362 kts 74°
2026-05-07 04:56 33.57277 135.69646 34928 ft 363 kts 73°
2026-05-07 04:56 33.57857 135.75661 34931 ft 363 kts 74°
2026-05-07 04:57 33.58434 135.81682 34932 ft 364 kts 74°
2026-05-07 04:57 33.59006 135.87699 34934 ft 363 kts 74°
2026-05-07 04:58 33.59573 135.93669 34929 ft 363 kts 74°
2026-05-07 04:58 33.60123 135.99684 34932 ft 363 kts 74°
2026-05-07 04:59 33.60669 136.05704 34929 ft 363 kts 74°
2026-05-07 04:59 33.61223 136.11720 34928 ft 363 kts 74°
2026-05-07 05:00 33.61780 136.17738 34929 ft 363 kts 74°
2026-05-07 05:00 33.62336 136.23755 34928 ft 363 kts 74°
2026-05-07 05:01 33.62888 136.29774 34928 ft 363 kts 74°
2026-05-07 05:01 33.63438 136.35793 34929 ft 363 kts 74°
2026-05-07 05:02 33.63985 136.41811 34929 ft 363 kts 74°
2026-05-07 05:02 33.64530 136.47837 34929 ft 363 kts 74°
2026-05-07 05:03 33.65071 136.53858 34928 ft 363 kts 74°
2026-05-07 05:03 33.65609 136.59884 34929 ft 363 kts 74°
2026-05-07 05:04 33.66145 136.65912 34929 ft 363 kts 74°
2026-05-07 05:04 33.66677 136.71934 34929 ft 363 kts 74°
2026-05-07 05:05 33.67207 136.77963 34929 ft 363 kts 74°
2026-05-07 05:05 33.67733 136.83993 34929 ft 363 kts 74°
2026-05-07 05:06 33.68257 136.90024 34928 ft 363 kts 74°
2026-05-07 05:06 33.68770 136.96023 34929 ft 364 kts 75°
2026-05-07 05:07 33.69269 137.02103 34929 ft 364 kts 75°
2026-05-07 05:07 33.69772 137.08143 34929 ft 363 kts 75°
2026-05-07 05:08 33.70228 137.14155 34929 ft 366 kts 77°
2026-05-07 05:08 33.70452 137.20279 34929 ft 368 kts 78°
2026-05-07 05:09 33.70626 137.26417 34929 ft 368 kts 78°
2026-05-07 05:09 33.70803 137.32553 34929 ft 368 kts 78°
2026-05-07 05:10 33.70954 137.37696 34929 ft 368 kts 78°
2026-05-07 05:10 33.71132 137.43790 34929 ft 368 kts 78°
2026-05-07 05:11 33.71309 137.49925 34929 ft 368 kts 78°
2026-05-07 05:11 33.71483 137.56062 34929 ft 368 kts 78°
2026-05-07 05:12 33.71654 137.62202 34929 ft 368 kts 78°
2026-05-07 05:12 33.71822 137.68339 34929 ft 368 kts 78°
2026-05-07 05:13 33.71987 137.74478 34929 ft 368 kts 78°
2026-05-07 05:13 33.72149 137.80621 34929 ft 368 kts 78°
2026-05-07 05:14 33.72308 137.86762 34929 ft 368 kts 78°
2026-05-07 05:14 33.72464 137.92905 34929 ft 368 kts 78°
2026-05-07 05:15 33.72617 137.99051 34929 ft 368 kts 78°
2026-05-07 05:15 33.72767 138.05195 34929 ft 368 kts 78°
2026-05-07 05:16 33.72913 138.11341 34929 ft 368 kts 78°
2026-05-07 05:16 33.73037 138.17496 34929 ft 368 kts 78°
2026-05-07 05:17 33.73160 138.23646 34929 ft 368 kts 78°
2026-05-07 05:17 33.73291 138.29797 34929 ft 368 kts 78°
2026-05-07 05:18 33.73424 138.35946 34929 ft 368 kts 78°
2026-05-07 05:18 33.73556 138.42099 34929 ft 368 kts 78°
2026-05-07 05:19 33.73784 138.48218 34927 ft 362 kts 72°
2026-05-07 05:19 33.74339 138.51110 34926 ft 349 kts 62°
2026-05-07 05:19 33.75331 138.53679 34929 ft 342 kts 54°
2026-05-07 05:20 33.77814 138.58530 34930 ft 341 kts 51°
2026-05-07 05:20 33.80341 138.63351 34928 ft 341 kts 52°
2026-05-07 05:21 33.84063 138.70646 34930 ft 341 kts 52°
2026-05-07 05:22 33.86526 138.75529 34927 ft 341 kts 52°
2026-05-07 05:22 33.88981 138.80417 34932 ft 341 kts 52°
2026-05-07 05:23 33.91436 138.85311 34927 ft 341 kts 53°
2026-05-07 05:23 33.93886 138.90205 34927 ft 341 kts 53°
2026-05-07 05:24 33.96338 138.95107 34927 ft 341 kts 53°
2026-05-07 05:24 33.98786 139.00009 34927 ft 341 kts 53°
2026-05-07 05:25 34.01232 139.04914 34927 ft 341 kts 53°
2026-05-07 05:25 34.03677 139.09824 34927 ft 342 kts 53°
2026-05-07 05:26 34.06103 139.14701 34930 ft 341 kts 53°
2026-05-07 05:26 34.08544 139.19618 34927 ft 341 kts 53°
2026-05-07 05:27 34.10981 139.24532 34927 ft 342 kts 53°
2026-05-07 05:27 34.13413 139.29462 34932 ft 342 kts 53°
2026-05-07 05:28 34.15836 139.34396 34930 ft 342 kts 53°
2026-05-07 05:28 34.18265 139.39327 34932 ft 342 kts 53°
2026-05-07 05:29 34.20696 139.44259 34927 ft 342 kts 53°
2026-05-07 05:29 34.23127 139.49194 34927 ft 342 kts 53°
2026-05-07 05:30 34.25553 139.54126 34927 ft 342 kts 53°
2026-05-07 05:30 34.27981 139.59065 34927 ft 342 kts 53°
2026-05-07 05:31 34.30407 139.64009 34930 ft 342 kts 53°
2026-05-07 05:31 34.32829 139.68952 34927 ft 342 kts 53°
2026-05-07 05:32 34.35252 139.73903 34933 ft 342 kts 53°
2026-05-07 05:32 34.37671 139.78854 34927 ft 342 kts 53°
2026-05-07 05:33 34.40089 139.83810 34932 ft 342 kts 53°
2026-05-07 05:33 34.42505 139.88767 34927 ft 342 kts 53°
2026-05-07 05:34 34.44919 139.93728 34927 ft 342 kts 53°
2026-05-07 05:34 34.47330 139.98691 34928 ft 342 kts 53°
2026-05-07 05:35 34.49722 140.03619 34927 ft 342 kts 53°
2026-05-07 05:35 34.52130 140.08590 34927 ft 342 kts 53°
2026-05-07 05:36 34.54536 140.13564 34927 ft 342 kts 53°
2026-05-07 05:36 34.56924 140.18555 34927 ft 342 kts 53°
2026-05-07 05:37 34.59314 140.23541 34927 ft 342 kts 53°
2026-05-07 05:37 34.61712 140.28528 34927 ft 342 kts 53°
2026-05-07 05:38 34.64108 140.33513 34931 ft 342 kts 53°
2026-05-07 05:38 34.66506 140.38504 34927 ft 342 kts 53°
2026-05-07 05:39 34.68901 140.43497 34927 ft 342 kts 53°
2026-05-07 05:39 34.70878 140.48807 34930 ft 352 kts 65°
2026-05-07 05:40 34.72103 140.54611 34928 ft 356 kts 68°
2026-05-07 05:40 34.73243 140.60462 34928 ft 356 kts 68°
2026-05-07 05:41 34.74404 140.66303 34928 ft 355 kts 68°
2026-05-07 05:41 34.75578 140.72138 34928 ft 355 kts 67°
2026-05-07 05:42 34.76754 140.77974 34934 ft 355 kts 67°
2026-05-07 05:42 34.77929 140.83811 34928 ft 355 kts 68°
2026-05-07 05:43 34.79094 140.89613 34928 ft 355 kts 68°
2026-05-07 05:43 34.80263 140.95451 34928 ft 355 kts 68°
2026-05-07 05:44 34.81431 141.01296 34928 ft 355 kts 68°
2026-05-07 05:44 34.82595 141.07141 34928 ft 355 kts 68°
2026-05-07 05:45 34.83758 141.12992 34928 ft 355 kts 68°
2026-05-07 05:45 34.84916 141.18839 34928 ft 355 kts 68°
2026-05-07 05:46 34.86073 141.24690 34931 ft 356 kts 68°
2026-05-07 05:46 34.87227 141.30547 34928 ft 356 kts 68°
2026-05-07 05:47 34.88378 141.36404 34933 ft 356 kts 68°
2026-05-07 05:47 34.89526 141.42261 34931 ft 356 kts 68°
2026-05-07 05:48 34.90660 141.48128 34928 ft 356 kts 68°
2026-05-07 05:48 34.91782 141.53999 34928 ft 356 kts 68°
2026-05-07 05:49 34.92914 141.59870 34928 ft 356 kts 68°
2026-05-07 05:49 34.94049 141.65739 34928 ft 356 kts 68°
2026-05-07 05:50 34.95182 141.71603 34928 ft 356 kts 68°
2026-05-07 05:50 34.96314 141.77476 34928 ft 356 kts 68°
2026-05-07 05:51 34.97442 141.83346 34928 ft 356 kts 68°
2026-05-07 05:51 34.98569 141.89224 34928 ft 356 kts 68°
2026-05-07 05:52 34.99692 141.95100 34933 ft 356 kts 68°
2026-05-07 05:52 35.00814 142.00983 34932 ft 356 kts 68°
2026-05-07 05:53 35.01932 142.06866 34928 ft 356 kts 68°
2026-05-07 05:53 35.03048 142.12750 34928 ft 356 kts 68°
2026-05-07 05:54 35.04161 142.18639 34928 ft 356 kts 68°
2026-05-07 05:54 35.05270 142.24526 34928 ft 356 kts 68°
2026-05-07 05:55 35.06377 142.30415 34930 ft 356 kts 68°
2026-05-07 05:55 35.07475 142.36271 34928 ft 356 kts 68°
2026-05-07 05:56 35.08576 142.42166 34928 ft 356 kts 68°
2026-05-07 05:56 35.09659 142.48071 34928 ft 357 kts 69°
2026-05-07 05:57 35.10737 142.53980 34928 ft 356 kts 68°
2026-05-07 05:57 35.11823 142.59885 34928 ft 356 kts 68°
2026-05-07 05:58 35.12912 142.65791 34928 ft 356 kts 68°
2026-05-07 05:58 35.14000 142.71699 34928 ft 356 kts 68°
2026-05-07 05:59 35.14901 142.76607 34928 ft 356 kts 68°
2026-05-07 05:59 35.16167 142.83518 34928 ft 356 kts 68°
2026-05-07 06:00 35.17065 142.88433 34928 ft 356 kts 68°
2026-05-07 06:00 35.18142 142.94348 34928 ft 357 kts 69°
2026-05-07 06:01 35.19217 143.00266 34931 ft 357 kts 69°
2026-05-07 06:01 35.20288 143.06184 34928 ft 357 kts 69°
2026-05-07 06:02 35.21358 143.12106 34928 ft 357 kts 69°
2026-05-07 06:02 35.22424 143.18029 34928 ft 357 kts 69°
2026-05-07 06:03 35.23487 143.23953 34928 ft 357 kts 69°
2026-05-07 06:03 35.24548 143.29883 34928 ft 357 kts 69°
2026-05-07 06:04 35.25394 143.35899 34929 ft 365 kts 76°
2026-05-07 06:04 35.25618 143.42136 34929 ft 368 kts 78°
2026-05-07 06:05 35.25751 143.48391 34929 ft 368 kts 78°
2026-05-07 06:05 35.25902 143.54654 34929 ft 368 kts 78°
2026-05-07 06:06 35.26066 143.60906 34932 ft 368 kts 78°
2026-05-07 06:06 35.26231 143.67162 34929 ft 368 kts 78°
2026-05-07 06:07 35.26394 143.73418 34929 ft 368 kts 78°
2026-05-07 06:07 35.26553 143.79634 34929 ft 368 kts 78°
2026-05-07 06:08 35.26710 143.85891 34929 ft 368 kts 78°
2026-05-07 06:08 35.26863 143.92152 34929 ft 368 kts 78°
2026-05-07 06:09 35.27014 143.98411 34929 ft 368 kts 78°
2026-05-07 06:09 35.27161 144.04673 34929 ft 368 kts 78°
2026-05-07 06:10 35.27305 144.10935 34929 ft 368 kts 78°
2026-05-07 06:10 35.27446 144.17195 34929 ft 368 kts 78°
2026-05-07 06:11 35.27583 144.23457 34929 ft 368 kts 78°
2026-05-07 06:11 35.27718 144.29722 34929 ft 368 kts 78°
2026-05-07 06:12 35.27847 144.35988 34929 ft 369 kts 78°
2026-05-07 06:12 35.27949 144.42261 34929 ft 369 kts 78°
2026-05-07 06:13 35.28058 144.48533 34929 ft 368 kts 78°
2026-05-07 06:13 35.28175 144.54800 34929 ft 368 kts 78°
2026-05-07 06:14 35.28292 144.61071 34929 ft 368 kts 78°
2026-05-07 06:14 35.28406 144.67339 34929 ft 368 kts 78°
2026-05-07 06:15 35.28518 144.73609 34929 ft 369 kts 78°
2026-05-07 06:15 35.28627 144.79881 34929 ft 369 kts 78°
2026-05-07 06:16 35.28732 144.86150 34929 ft 369 kts 78°
2026-05-07 06:16 35.28834 144.92426 34929 ft 369 kts 78°
2026-05-07 06:17 35.28976 144.98684 34929 ft 367 kts 78°
2026-05-07 06:17 35.29189 145.04889 34929 ft 367 kts 77°
2026-05-07 06:18 35.29416 145.11127 34929 ft 367 kts 77°
2026-05-07 06:18 35.29641 145.17372 34929 ft 367 kts 77°
2026-05-07 06:19 35.29861 145.23612 34929 ft 367 kts 77°
2026-05-07 06:19 35.30078 145.29857 34929 ft 367 kts 77°
2026-05-07 06:20 35.30292 145.36095 34929 ft 367 kts 77°
2026-05-07 06:20 35.30502 145.42343 34929 ft 367 kts 77°
2026-05-07 06:21 35.30710 145.48588 34929 ft 367 kts 77°
2026-05-07 06:21 35.30914 145.54835 34929 ft 367 kts 77°
2026-05-07 06:22 35.31115 145.61086 34929 ft 367 kts 78°
2026-05-07 06:22 35.31410 145.70465 34929 ft 367 kts 78°
2026-05-07 06:23 35.31603 145.76713 34929 ft 367 kts 78°
2026-05-07 06:23 35.31793 145.82965 34929 ft 368 kts 78°
2026-05-07 06:24 35.31979 145.89219 34929 ft 368 kts 78°
2026-05-07 06:24 35.32124 145.95482 34927 ft 372 kts 82°
2026-05-07 06:25 35.31431 146.01871 34929 ft 383 kts 90°
2026-05-07 06:25 35.30382 146.08283 34929 ft 384 kts 90°
2026-05-07 06:26 35.29336 146.14689 34929 ft 384 kts 90°
2026-05-07 06:26 35.28324 146.21056 34929 ft 384 kts 90°
2026-05-07 06:27 35.27313 146.27467 34929 ft 383 kts 90°
2026-05-07 06:27 35.26303 146.33871 34929 ft 384 kts 90°
2026-05-07 06:28 35.25288 146.40278 34929 ft 384 kts 90°
2026-05-07 06:28 35.24270 146.46688 34929 ft 384 kts 90°
2026-05-07 06:29 35.23248 146.53092 34929 ft 384 kts 90°
2026-05-07 06:29 35.22223 146.59497 34929 ft 384 kts 90°
2026-05-07 06:30 35.21195 146.65901 34929 ft 384 kts 90°
2026-05-07 06:30 35.20162 146.72304 34929 ft 384 kts 90°
2026-05-07 06:31 35.19127 146.78701 34929 ft 384 kts 90°
2026-05-07 06:31 35.18088 146.85105 34929 ft 384 kts 90°
2026-05-07 06:32 35.17046 146.91503 34929 ft 384 kts 90°
2026-05-07 06:32 35.15992 146.97906 34929 ft 384 kts 90°
2026-05-07 06:33 35.14924 147.04260 34929 ft 384 kts 90°
2026-05-07 06:33 35.13858 147.10659 34929 ft 384 kts 90°
2026-05-07 06:34 35.12798 147.17055 34929 ft 384 kts 90°
2026-05-07 06:34 35.11739 147.23442 34929 ft 384 kts 90°
2026-05-07 06:35 35.10675 147.29840 34929 ft 384 kts 90°
2026-05-07 06:35 35.09608 147.36231 34929 ft 384 kts 90°
2026-05-07 06:36 35.08537 147.42627 34929 ft 384 kts 90°
2026-05-07 06:36 35.07463 147.49018 34929 ft 384 kts 90°
2026-05-07 06:37 35.06385 147.55411 34929 ft 384 kts 90°
2026-05-07 06:37 35.05304 147.61801 34929 ft 384 kts 90°
2026-05-07 06:38 35.04219 147.68189 34929 ft 385 kts 90°
2026-05-07 06:38 35.03131 147.74579 34929 ft 385 kts 90°
2026-05-07 06:39 35.02039 147.80967 34929 ft 385 kts 91°
2026-05-07 06:39 35.00944 147.87355 34929 ft 385 kts 91°
2026-05-07 06:40 34.99845 147.93740 34929 ft 385 kts 91°
2026-05-07 06:40 34.98724 148.00125 34931 ft 385 kts 91°
2026-05-07 06:41 34.97598 148.06506 34929 ft 385 kts 91°
2026-05-07 06:41 34.96481 148.12890 34929 ft 385 kts 91°
2026-05-07 06:42 34.95367 148.19274 34929 ft 385 kts 91°
2026-05-07 06:42 34.94251 148.25655 34929 ft 385 kts 91°
2026-05-07 06:43 34.93132 148.32031 34929 ft 385 kts 91°
2026-05-07 06:43 34.92009 148.38412 34929 ft 385 kts 91°
2026-05-07 06:44 34.90882 148.44790 34929 ft 385 kts 91°
2026-05-07 06:44 34.89752 148.51166 34929 ft 385 kts 91°
2026-05-07 06:45 34.88618 148.57543 34929 ft 385 kts 91°
2026-05-07 06:45 34.87481 148.63918 34929 ft 385 kts 91°
2026-05-07 06:46 34.86534 148.69215 34929 ft 385 kts 91°
2026-05-07 06:46 34.85204 148.76624 34929 ft 385 kts 91°
2026-05-07 06:47 34.84057 148.82997 34929 ft 385 kts 91°
2026-05-07 06:47 34.83093 148.88334 34929 ft 385 kts 91°
2026-05-07 06:48 34.81746 148.95740 34928 ft 386 kts 91°
2026-05-07 06:48 34.80762 149.01034 34929 ft 386 kts 91°
2026-05-07 06:49 34.79577 149.07447 34929 ft 386 kts 91°
2026-05-07 06:49 34.78417 149.13763 34929 ft 386 kts 91°
2026-05-07 06:50 34.77248 149.20131 34929 ft 386 kts 91°
2026-05-07 06:50 34.76077 149.26496 34929 ft 386 kts 91°
2026-05-07 06:51 34.74902 149.32863 34929 ft 386 kts 91°
2026-05-07 06:51 34.73724 149.39223 34929 ft 386 kts 91°
2026-05-07 06:52 34.72542 149.45588 34929 ft 386 kts 91°
2026-05-07 06:52 34.71357 149.51952 34929 ft 386 kts 91°
2026-05-07 06:53 34.70168 149.58310 34929 ft 386 kts 91°
2026-05-07 06:53 34.68976 149.64671 34929 ft 386 kts 91°
2026-05-07 06:54 34.67780 149.71029 34929 ft 386 kts 92°
2026-05-07 06:54 34.66581 149.77386 34929 ft 386 kts 92°
2026-05-07 06:55 34.65379 149.83742 34929 ft 386 kts 92°
2026-05-07 06:55 34.64173 149.90098 34929 ft 386 kts 92°
2026-05-07 06:56 34.62950 149.96452 34929 ft 387 kts 92°
2026-05-07 06:56 34.61714 150.02807 34929 ft 387 kts 92°
2026-05-07 06:57 34.60488 150.09159 34929 ft 386 kts 92°
2026-05-07 06:57 34.59266 150.15508 34929 ft 386 kts 92°
2026-05-07 06:58 34.58051 150.21816 34929 ft 386 kts 92°
2026-05-07 06:58 34.56824 150.28167 34929 ft 387 kts 92°
2026-05-07 06:59 34.55594 150.34513 34929 ft 387 kts 92°
2026-05-07 06:59 34.54360 150.40859 34929 ft 387 kts 92°
2026-05-07 07:00 34.53124 150.47203 34929 ft 387 kts 92°
2026-05-07 07:00 34.51883 150.53549 34929 ft 387 kts 92°
2026-05-07 07:01 34.50638 150.59894 34929 ft 387 kts 92°
2026-05-07 07:01 34.49391 150.66234 34929 ft 387 kts 92°
2026-05-07 07:02 34.48140 150.72577 34929 ft 387 kts 92°
2026-05-07 07:02 34.46886 150.78917 34929 ft 387 kts 92°
2026-05-07 07:03 34.45628 150.85255 34929 ft 387 kts 92°
2026-05-07 07:03 34.44365 150.91593 34928 ft 387 kts 92°
2026-05-07 07:04 34.43076 150.97926 34929 ft 387 kts 92°
2026-05-07 07:04 34.41794 151.04254 34929 ft 387 kts 92°
2026-05-07 07:05 34.40518 151.10588 34929 ft 387 kts 92°
2026-05-07 07:05 34.39241 151.16923 34929 ft 387 kts 92°
2026-05-07 07:06 34.37963 151.23253 34929 ft 387 kts 92°
2026-05-07 07:06 34.36681 151.29585 34929 ft 387 kts 92°
2026-05-07 07:07 34.35396 151.35912 34929 ft 387 kts 92°
2026-05-07 07:07 34.34108 151.42240 34933 ft 387 kts 92°
2026-05-07 07:08 34.32815 151.48570 34929 ft 387 kts 92°
2026-05-07 07:08 34.31520 151.54894 34929 ft 387 kts 92°
2026-05-07 07:09 34.30221 151.61219 34929 ft 388 kts 92°
2026-05-07 07:09 34.28918 151.67546 34929 ft 388 kts 93°
2026-05-07 07:10 34.27613 151.73865 34929 ft 388 kts 93°
2026-05-07 07:10 34.26303 151.80190 34929 ft 388 kts 93°
2026-05-07 07:11 34.24999 151.86467 34929 ft 388 kts 93°
2026-05-07 07:11 34.23668 151.92786 34929 ft 388 kts 93°
2026-05-07 07:12 34.22318 151.99144 34929 ft 388 kts 93°
2026-05-07 07:12 34.20986 152.05460 34929 ft 388 kts 93°
2026-05-07 07:13 34.19659 152.11773 34929 ft 388 kts 93°
2026-05-07 07:13 34.18328 152.18091 34929 ft 388 kts 93°
2026-05-07 07:14 34.17003 152.24362 34931 ft 388 kts 93°
2026-05-07 07:14 34.15667 152.30671 34929 ft 388 kts 93°
2026-05-07 07:15 34.14327 152.36985 34929 ft 388 kts 93°
2026-05-07 07:15 34.12983 152.43295 34929 ft 388 kts 93°
2026-05-07 07:16 34.11636 152.49603 34929 ft 388 kts 93°
2026-05-07 07:16 34.10287 152.55907 34929 ft 388 kts 93°
2026-05-07 07:17 34.08933 152.62213 34929 ft 388 kts 93°
2026-05-07 07:17 34.07575 152.68519 34929 ft 388 kts 93°
2026-05-07 07:18 34.06214 152.74825 34929 ft 388 kts 93°
2026-05-07 07:18 34.04850 152.81126 34929 ft 388 kts 93°
2026-05-07 07:19 34.03478 152.87428 34929 ft 389 kts 94°
2026-05-07 07:19 34.02085 152.93718 34929 ft 389 kts 94°
2026-05-07 07:20 34.00697 153.00017 34928 ft 388 kts 93°
2026-05-07 07:20 34.00214 153.03162 34927 ft 376 kts 84°
2026-05-07 07:20 34.00117 153.06279 34929 ft 369 kts 79°
2026-05-07 07:21 34.00285 153.12435 34929 ft 367 kts 77°
2026-05-07 07:21 34.00492 153.18588 34929 ft 368 kts 78°
2026-05-07 07:22 34.00659 153.24748 34929 ft 368 kts 78°
2026-05-07 07:22 34.00805 153.30913 34929 ft 368 kts 78°
2026-05-07 07:23 34.00943 153.37084 34929 ft 368 kts 78°
2026-05-07 07:23 34.01076 153.43252 34929 ft 368 kts 78°
2026-05-07 07:24 34.01206 153.49379 34929 ft 368 kts 78°
2026-05-07 07:24 34.01333 153.55551 34929 ft 368 kts 78°
2026-05-07 07:25 34.01518 153.64810 34929 ft 368 kts 78°
2026-05-07 07:26 34.01638 153.70984 34929 ft 368 kts 78°
2026-05-07 07:26 34.01754 153.77157 34929 ft 368 kts 78°
2026-05-07 07:27 34.01867 153.83331 34929 ft 369 kts 78°
2026-05-07 07:27 34.01978 153.89509 34929 ft 368 kts 78°
2026-05-07 07:28 34.02085 153.95684 34929 ft 369 kts 78°
2026-05-07 07:28 34.02189 154.01862 34929 ft 369 kts 79°
2026-05-07 07:29 34.02268 154.08046 34929 ft 369 kts 79°
2026-05-07 07:29 34.02349 154.14227 34929 ft 369 kts 79°
2026-05-07 07:30 34.02438 154.20409 34929 ft 369 kts 79°
2026-05-07 07:30 34.02528 154.26588 34929 ft 369 kts 79°
2026-05-07 07:31 34.02616 154.32768 34929 ft 369 kts 79°
2026-05-07 07:31 34.02702 154.38950 34929 ft 369 kts 79°
2026-05-07 07:32 34.02784 154.45136 34929 ft 369 kts 79°
2026-05-07 07:32 34.02864 154.51320 34929 ft 369 kts 79°
2026-05-07 07:33 34.02940 154.57503 34929 ft 369 kts 79°
2026-05-07 07:33 34.03001 154.62640 34929 ft 369 kts 79°
2026-05-07 07:34 34.03083 154.69871 34929 ft 369 kts 79°
2026-05-07 07:34 34.03150 154.76020 34929 ft 369 kts 79°
2026-05-07 07:35 34.03203 154.81195 34929 ft 369 kts 79°
2026-05-07 07:35 34.03274 154.88386 34929 ft 369 kts 79°
2026-05-07 07:36 34.03322 154.93531 34929 ft 369 kts 79°
2026-05-07 07:36 34.03377 154.99717 34929 ft 369 kts 79°
2026-05-07 07:37 34.03417 155.05911 34929 ft 370 kts 79°
2026-05-07 07:37 34.03443 155.12107 34929 ft 370 kts 79°
2026-05-07 07:38 34.03480 155.18304 34929 ft 369 kts 79°
2026-05-07 07:38 34.03520 155.24492 34929 ft 369 kts 79°
2026-05-07 07:39 34.03559 155.30689 34929 ft 369 kts 79°
2026-05-07 07:39 34.03595 155.36881 34929 ft 370 kts 79°
2026-05-07 07:40 34.03628 155.43078 34929 ft 370 kts 79°
2026-05-07 07:40 34.03658 155.49272 34929 ft 370 kts 79°
2026-05-07 07:41 34.03686 155.55468 34929 ft 370 kts 79°
2026-05-07 07:41 34.03709 155.61667 34929 ft 370 kts 79°
2026-05-07 07:42 34.03730 155.67864 34929 ft 370 kts 79°
2026-05-07 07:42 34.03748 155.74061 34929 ft 370 kts 79°
2026-05-07 07:43 34.03762 155.80262 34929 ft 370 kts 79°
2026-05-07 07:43 34.03774 155.86459 34929 ft 370 kts 79°
2026-05-07 07:44 34.03782 155.92622 34929 ft 370 kts 79°
2026-05-07 07:44 34.03787 155.98822 34929 ft 370 kts 79°
2026-05-07 07:45 34.03781 156.05025 34929 ft 370 kts 80°
2026-05-07 07:45 34.03756 156.11234 34929 ft 370 kts 80°
2026-05-07 07:46 34.03741 156.17440 34929 ft 370 kts 80°
2026-05-07 07:46 34.03730 156.23644 34929 ft 370 kts 80°
2026-05-07 07:47 34.03719 156.29851 34929 ft 370 kts 80°
2026-05-07 07:47 34.03705 156.36055 34929 ft 370 kts 80°
2026-05-07 07:48 34.03689 156.42263 34929 ft 370 kts 80°
2026-05-07 07:48 34.03669 156.48470 34929 ft 370 kts 80°
2026-05-07 07:49 34.03646 156.54677 34929 ft 370 kts 80°
2026-05-07 07:49 34.03619 156.60883 34929 ft 370 kts 80°
2026-05-07 07:50 34.03590 156.67087 34929 ft 370 kts 80°
2026-05-07 07:50 34.03558 156.73298 34929 ft 370 kts 80°
2026-05-07 07:51 34.03522 156.79506 34929 ft 370 kts 80°
2026-05-07 07:51 34.03483 156.85715 34929 ft 371 kts 80°
2026-05-07 07:52 34.03442 156.91928 34929 ft 371 kts 80°
2026-05-07 07:52 34.03397 156.98141 34929 ft 371 kts 80°
2026-05-07 07:53 34.03345 157.04311 34929 ft 371 kts 80°
2026-05-07 07:53 34.03269 157.10531 34929 ft 371 kts 80°
2026-05-07 07:54 34.03201 157.16750 34929 ft 371 kts 80°
2026-05-07 07:54 34.03139 157.22963 34929 ft 371 kts 80°
2026-05-07 07:55 34.03078 157.29181 34929 ft 371 kts 80°
2026-05-07 07:55 34.03014 157.35396 34929 ft 371 kts 80°
2026-05-07 07:56 34.02947 157.41611 34929 ft 371 kts 80°
2026-05-07 07:56 34.02877 157.47824 34929 ft 371 kts 80°
2026-05-07 07:57 34.02803 157.54043 34929 ft 371 kts 81°
2026-05-07 07:57 34.02727 157.60259 34929 ft 371 kts 81°
2026-05-07 07:58 34.02647 157.66478 34929 ft 371 kts 81°
2026-05-07 07:58 34.02565 157.72696 34929 ft 371 kts 81°
2026-05-07 07:59 34.02479 157.78917 34929 ft 371 kts 81°
2026-05-07 07:59 34.02390 157.85136 34929 ft 371 kts 81°
2026-05-07 08:00 34.02297 157.91358 34929 ft 371 kts 81°
2026-05-07 08:00 34.02202 157.97577 34929 ft 371 kts 81°
2026-05-07 08:01 34.02101 158.03800 34929 ft 371 kts 81°
2026-05-07 08:01 34.01976 158.10026 34929 ft 372 kts 81°
2026-05-07 08:02 34.01856 158.16254 34929 ft 371 kts 81°
2026-05-07 08:02 34.01743 158.22477 34933 ft 371 kts 81°
2026-05-07 08:03 34.01631 158.28700 34929 ft 371 kts 81°
2026-05-07 08:03 34.01517 158.34884 34929 ft 372 kts 81°
2026-05-07 08:04 34.01399 158.41109 34929 ft 372 kts 81°
2026-05-07 08:04 34.01278 158.47378 34929 ft 372 kts 81°
2026-05-07 08:05 34.01155 158.53556 34929 ft 372 kts 81°
2026-05-07 08:05 34.01028 158.59783 34929 ft 372 kts 81°
2026-05-07 08:06 34.00898 158.66011 34929 ft 372 kts 81°
2026-05-07 08:06 34.00764 158.72238 34929 ft 372 kts 81°
2026-05-07 08:07 34.00628 158.78465 34929 ft 372 kts 81°
2026-05-07 08:07 34.00488 158.84691 34929 ft 372 kts 81°
2026-05-07 08:08 34.00345 158.90922 34929 ft 372 kts 81°
2026-05-07 08:08 33.99997 158.97181 34929 ft 378 kts 86°
2026-05-07 08:09 33.99294 159.03480 34929 ft 380 kts 87°
2026-05-07 08:09 33.98558 159.09784 34929 ft 380 kts 87°
2026-05-07 08:10 33.97837 159.16080 34929 ft 379 kts 87°
2026-05-07 08:10 33.97123 159.22377 34929 ft 379 kts 87°
2026-05-07 08:11 33.96408 159.28678 34929 ft 380 kts 87°
2026-05-07 08:11 33.95690 159.34975 34929 ft 380 kts 87°
2026-05-07 08:12 33.94969 159.41275 34929 ft 380 kts 87°
2026-05-07 08:12 33.94245 159.47569 34929 ft 380 kts 87°
2026-05-07 08:13 33.93517 159.53868 34929 ft 380 kts 87°
2026-05-07 08:13 33.92786 159.60166 34929 ft 380 kts 87°
2026-05-07 08:14 33.92051 159.66463 34929 ft 380 kts 87°
2026-05-07 08:14 33.91314 159.72755 34929 ft 380 kts 87°
2026-05-07 08:15 33.90573 159.79052 34929 ft 380 kts 87°
2026-05-07 08:15 33.89829 159.85345 34929 ft 380 kts 87°
2026-05-07 08:16 33.89081 159.91639 34929 ft 380 kts 87°
2026-05-07 08:16 33.88311 159.97934 34929 ft 380 kts 88°
2026-05-07 08:17 33.87538 160.04230 34929 ft 380 kts 87°
2026-05-07 08:17 33.86773 160.10525 34929 ft 380 kts 87°
2026-05-07 08:18 33.86011 160.16818 34929 ft 380 kts 87°
2026-05-07 08:18 33.85247 160.23106 34929 ft 380 kts 87°
2026-05-07 08:19 33.84479 160.29402 34929 ft 380 kts 87°
2026-05-07 08:19 33.83709 160.35691 34929 ft 380 kts 87°
2026-05-07 08:20 33.82936 160.41978 34929 ft 380 kts 87°
2026-05-07 08:20 33.82159 160.48268 34929 ft 380 kts 88°
2026-05-07 08:21 33.81378 160.54557 34929 ft 380 kts 88°
2026-05-07 08:21 33.80600 160.60805 34929 ft 380 kts 88°
2026-05-07 08:22 33.79941 160.66073 34929 ft 380 kts 88°
2026-05-07 08:22 33.79151 160.72361 34929 ft 380 kts 88°
2026-05-07 08:23 33.78358 160.78650 34929 ft 380 kts 88°
2026-05-07 08:23 33.77561 160.84941 34929 ft 381 kts 88°
2026-05-07 08:24 33.76767 160.91187 34929 ft 381 kts 88°
2026-05-07 08:24 33.75937 160.97515 34929 ft 381 kts 88°
2026-05-07 08:25 33.75118 161.03763 34929 ft 381 kts 88°
2026-05-07 08:25 33.74302 161.10048 34929 ft 381 kts 88°
2026-05-07 08:26 33.73081 161.19475 34929 ft 381 kts 88°
2026-05-07 08:26 33.72263 161.25761 34929 ft 381 kts 88°
2026-05-07 08:27 33.71442 161.32044 34929 ft 381 kts 88°
2026-05-07 08:27 33.70617 161.38329 34929 ft 381 kts 88°
2026-05-07 08:28 33.69789 161.44616 34929 ft 381 kts 88°
2026-05-07 08:28 33.68958 161.50900 34929 ft 381 kts 88°
2026-05-07 08:29 33.68124 161.57182 34929 ft 381 kts 88°
2026-05-07 08:29 33.67286 161.63464 34929 ft 381 kts 88°
2026-05-07 08:30 33.66445 161.69748 34929 ft 381 kts 88°
2026-05-07 08:30 33.65601 161.76031 34929 ft 381 kts 88°
2026-05-07 08:31 33.64754 161.82307 34929 ft 381 kts 88°
2026-05-07 08:31 33.63904 161.88579 34929 ft 381 kts 88°
2026-05-07 08:32 33.63034 161.94860 34929 ft 382 kts 89°
2026-05-07 08:32 33.62162 162.01100 34929 ft 382 kts 88°
2026-05-07 08:33 33.61293 162.07381 34929 ft 382 kts 88°
2026-05-07 08:33 33.60427 162.13659 34929 ft 382 kts 88°
2026-05-07 08:34 33.59560 162.19935 34929 ft 382 kts 88°
2026-05-07 08:34 33.58690 162.26210 34929 ft 382 kts 88°
2026-05-07 08:35 33.57816 162.32486 34934 ft 382 kts 88°
2026-05-07 08:35 33.56939 162.38763 34929 ft 382 kts 88°
2026-05-07 08:36 33.56059 162.45038 34929 ft 382 kts 89°
2026-05-07 08:36 33.55174 162.51316 34929 ft 382 kts 89°
2026-05-07 08:37 33.54288 162.57590 34929 ft 382 kts 89°
2026-05-07 08:37 33.53397 162.63865 34929 ft 382 kts 89°
2026-05-07 08:38 33.52503 162.70141 34929 ft 382 kts 89°
2026-05-07 08:38 33.51607 162.76413 34929 ft 382 kts 89°
2026-05-07 08:39 33.50707 162.82687 34929 ft 382 kts 89°
2026-05-07 08:39 33.49802 162.88959 34929 ft 382 kts 89°
2026-05-07 08:40 33.48873 162.95229 34931 ft 382 kts 89°
2026-05-07 08:40 33.47946 163.01501 34929 ft 382 kts 89°
2026-05-07 08:41 33.47028 163.07772 34929 ft 382 kts 89°
2026-05-07 08:41 33.46110 163.14043 34929 ft 382 kts 89°
2026-05-07 08:42 33.45191 163.20309 34929 ft 382 kts 89°
2026-05-07 08:42 33.44274 163.26537 34929 ft 382 kts 89°
2026-05-07 08:43 33.43347 163.32806 34929 ft 382 kts 89°
2026-05-07 08:43 33.42418 163.39073 34929 ft 382 kts 89°
2026-05-07 08:44 33.41485 163.45338 34929 ft 382 kts 89°
2026-05-07 08:44 33.40549 163.51602 34929 ft 382 kts 89°
2026-05-07 08:45 33.39610 163.57867 34929 ft 383 kts 89°
2026-05-07 08:45 33.38667 163.64133 34929 ft 383 kts 89°
2026-05-07 08:46 33.37721 163.70398 34929 ft 383 kts 89°
2026-05-07 08:46 33.36772 163.76662 34929 ft 383 kts 89°
2026-05-07 08:47 33.35819 163.82923 34929 ft 383 kts 89°
2026-05-07 08:47 33.34856 163.89185 34929 ft 383 kts 89°
2026-05-07 08:48 33.33873 163.95449 34932 ft 383 kts 89°
2026-05-07 08:48 33.32899 164.01711 34929 ft 383 kts 89°
2026-05-07 08:49 33.31930 164.07972 34929 ft 383 kts 89°
2026-05-07 08:49 33.30962 164.14227 34929 ft 383 kts 89°
2026-05-07 08:50 33.29990 164.20485 34929 ft 383 kts 89°
2026-05-07 08:50 33.29015 164.26742 34929 ft 383 kts 89°
2026-05-07 08:51 33.28036 164.32999 34929 ft 383 kts 89°
2026-05-07 08:51 33.27054 164.39254 34929 ft 383 kts 89°
2026-05-07 08:52 33.26069 164.45511 34929 ft 383 kts 90°
2026-05-07 08:52 33.25080 164.51767 34929 ft 383 kts 90°
2026-05-07 08:53 33.24089 164.58022 34929 ft 383 kts 90°
2026-05-07 08:53 33.23094 164.64277 34929 ft 383 kts 90°
2026-05-07 08:54 33.22102 164.70487 34929 ft 383 kts 90°
2026-05-07 08:54 33.21101 164.76738 34932 ft 383 kts 90°
2026-05-07 08:55 33.20096 164.82992 34929 ft 383 kts 90°
2026-05-07 08:55 33.19071 164.89242 34929 ft 384 kts 90°
2026-05-07 08:56 33.18040 164.95493 34929 ft 384 kts 90°
2026-05-07 08:56 33.17018 165.01745 34929 ft 384 kts 90°
2026-05-07 08:57 33.15999 165.07991 34929 ft 384 kts 90°
2026-05-07 08:57 33.14977 165.14242 34929 ft 384 kts 90°
2026-05-07 08:58 33.13954 165.20487 34929 ft 384 kts 90°
2026-05-07 08:58 33.12925 165.26739 34929 ft 384 kts 90°
2026-05-07 08:59 33.11895 165.32985 34929 ft 384 kts 90°
2026-05-07 08:59 33.10861 165.39228 34929 ft 384 kts 90°
2026-05-07 09:00 33.09823 165.45475 34929 ft 384 kts 90°
2026-05-07 09:00 33.08782 165.51720 34929 ft 384 kts 90°
2026-05-07 09:01 33.07739 165.57963 34929 ft 384 kts 90°
2026-05-07 09:01 33.06692 165.64205 34929 ft 384 kts 90°
2026-05-07 09:02 33.05649 165.70401 34929 ft 384 kts 90°
2026-05-07 09:02 33.04595 165.76643 34929 ft 384 kts 90°
2026-05-07 09:03 33.03457 165.82883 34929 ft 388 kts 94°
2026-05-07 09:03 33.01948 165.89097 34929 ft 391 kts 95°
2026-05-07 09:04 33.00364 165.95303 34928 ft 391 kts 95°
2026-05-07 09:04 32.98796 166.01501 34931 ft 391 kts 95°
2026-05-07 09:05 32.97234 166.07709 34929 ft 391 kts 95°
2026-05-07 09:05 32.95674 166.13915 34929 ft 391 kts 95°
2026-05-07 09:06 32.94111 166.20119 34929 ft 391 kts 95°
2026-05-07 09:06 32.92545 166.26321 34929 ft 391 kts 95°
2026-05-07 09:07 32.90976 166.32520 34929 ft 391 kts 95°
2026-05-07 09:07 32.89404 166.38719 34929 ft 391 kts 95°
2026-05-07 09:08 32.87828 166.44917 34928 ft 391 kts 95°
2026-05-07 09:08 32.86249 166.51113 34929 ft 391 kts 95°
2026-05-07 09:09 32.84666 166.57310 34929 ft 391 kts 95°
2026-05-07 09:09 32.83349 166.62454 34929 ft 392 kts 96°
2026-05-07 09:10 32.81761 166.68645 34929 ft 392 kts 96°
2026-05-07 09:10 32.80168 166.74838 34929 ft 392 kts 96°
2026-05-07 09:11 32.78556 166.81022 34929 ft 392 kts 96°
2026-05-07 09:11 32.76939 166.87209 34929 ft 392 kts 96°
2026-05-07 09:12 32.75332 166.93392 34932 ft 392 kts 96°
2026-05-07 09:12 32.73726 166.99579 34929 ft 392 kts 96°
2026-05-07 09:13 32.72119 167.05760 34929 ft 392 kts 96°
2026-05-07 09:13 32.70507 167.11944 34929 ft 392 kts 96°
2026-05-07 09:14 32.68893 167.18122 34929 ft 392 kts 96°
2026-05-07 09:14 32.67287 167.24260 34929 ft 392 kts 96°
2026-05-07 09:15 32.65666 167.30437 34929 ft 392 kts 96°
2026-05-07 09:15 32.64042 167.36613 34929 ft 392 kts 96°
2026-05-07 09:16 32.62415 167.42786 34934 ft 392 kts 96°
2026-05-07 09:16 32.60784 167.48957 34929 ft 392 kts 96°
2026-05-07 09:17 32.59150 167.55130 34928 ft 392 kts 96°
2026-05-07 09:17 32.57513 167.61300 34928 ft 392 kts 96°